Observation data for Lake Alan Henry on 11/09/2019      Previous  Date       Current Mesonet Observations  Soil Data  Daily Summary Page  Observations in Plain Language
KAHS 090600Z 26006KT 05/05 A3029 RMK A01 T00530051  RH  099%=      5-min Rain = 0
KAHS 090601Z 25006KT 05/05 A3029 RMK A01 T00530051  RH  099%=      5-min Rain = 0
KAHS 090602Z 25006KT 05/05 A3029 RMK A01 T00530051  RH  099%=      5-min Rain = 0
KAHS 090603Z 25006KT 05/05 A3029 RMK A01 T00530051  RH  099%=      5-min Rain = 0
KAHS 090604Z 25006KT 05/05 A3029 RMK A01 T00530051  RH  099%=      5-min Rain = 0
KAHS 090605Z 25006KT 05/05 A3029 RMK A01 T00530051  RH  099%=      5-min Rain = 0
KAHS 090606Z 25006KT 05/05 A3029 RMK A01 T00530051  RH  099%=      5-min Rain = 0
KAHS 090607Z 25006KT 05/05 A3029 RMK A01 T00530051  RH  099%=      5-min Rain = 0
KAHS 090608Z 25007KT 05/05 A3029 RMK A01 T00530051  RH  099%=      5-min Rain = 0
KAHS 090609Z 25007KT 05/05 A3029 RMK A01 T00530051  RH  099%=      5-min Rain = 0
KAHS 090610Z 25007KT 05/05 A3029 RMK A01 T00540052  RH  099%=      5-min Rain = 0
KAHS 090611Z 25007KT 05/05 A3029 RMK A01 T00540052  RH  099%=      5-min Rain = 0
KAHS 090612Z 25007KT 05/05 A3029 RMK A01 T00540052  RH  099%=      5-min Rain = 0
KAHS 090613Z 25007KT 05/05 A3029 RMK A01 T00540052  RH  099%=      5-min Rain = 0
KAHS 090614Z 25007KT 05/05 A3029 RMK A01 T00540052  RH  099%=      5-min Rain = 0
KAHS 090615Z 25007KT 05/05 A3029 RMK A01 T00540052  RH  099%=      5-min Rain = 0
KAHS 090616Z 25007KT 05/05 A3029 RMK A01 T00540052  RH  099%=      5-min Rain = 0
KAHS 090617Z 25007KT 05/05 A3029 RMK A01 T00540052  RH  099%=      5-min Rain = 0
KAHS 090618Z 25007KT 05/05 A3029 RMK A01 T00540052  RH  099%=      5-min Rain = 0
KAHS 090619Z 25006KT 05/05 A3029 RMK A01 T00540052  RH  099%=      5-min Rain = 0
KAHS 090620Z 26007KT 05/05 A3029 RMK A01 T00540052  RH  099%=      5-min Rain = 0
KAHS 090621Z 26007KT 06/05 A3029 RMK A01 T00550053  RH  099%=      5-min Rain = 0
KAHS 090622Z 26006KT 06/05 A3029 RMK A01 T00550053  RH  099%=      5-min Rain = 0
KAHS 090623Z 26006KT 06/05 A3029 RMK A01 T00550053  RH  099%=      5-min Rain = 0
KAHS 090624Z 25006KT 06/05 A3029 RMK A01 T00550053  RH  099%=      5-min Rain = 0
KAHS 090625Z 25006KT 06/05 A3029 RMK A01 T00550053  RH  099%=      5-min Rain = 0
KAHS 090626Z 25006KT 06/05 A3029 RMK A01 T00550053  RH  099%=      5-min Rain = 0
KAHS 090627Z 25006KT 06/05 A3029 RMK A01 T00550053  RH  099%=      5-min Rain = 0
KAHS 090628Z 25006KT 06/05 A3029 RMK A01 T00550053  RH  099%=      5-min Rain = 0
KAHS 090629Z 25006KT 06/05 A3029 RMK A01 T00550054  RH  099%=      5-min Rain = 0
KAHS 090630Z 25006KT 06/05 A3029 RMK A01 T00550053  RH  099%=      5-min Rain = 0
KAHS 090631Z 25006KT 06/05 A3029 RMK A01 T00550053  RH  099%=      5-min Rain = 0
KAHS 090632Z 25005KT 06/05 A3029 RMK A01 T00550053  RH  099%=      5-min Rain = 0
KAHS 090633Z 24006KT 06/05 A3029 RMK A01 T00550053  RH  099%=      5-min Rain = 0
KAHS 090634Z 24005KT 06/05 A3029 RMK A01 T00550053  RH  099%=      5-min Rain = 0
KAHS 090635Z 24005KT 06/05 A3029 RMK A01 T00550053  RH  099%=      5-min Rain = 0
KAHS 090636Z 24005KT 05/05 A3029 RMK A01 T00540052  RH  099%=      5-min Rain = 0
KAHS 090637Z 24005KT 05/05 A3029 RMK A01 T00540052  RH  099%=      5-min Rain = 0
KAHS 090638Z 25005KT 05/05 A3029 RMK A01 T00540052  RH  099%=      5-min Rain = 0
KAHS 090639Z 25006KT 05/05 A3029 RMK A01 T00540052  RH  099%=      5-min Rain = 0
KAHS 090640Z 24005KT 05/05 A3029 RMK A01 T00540052  RH  099%=      5-min Rain = 0
KAHS 090641Z 24005KT 05/05 A3029 RMK A01 T00540052  RH  099%=      5-min Rain = 0
KAHS 090642Z 25005KT 05/05 A3029 RMK A01 T00530051  RH  099%=      5-min Rain = 0
KAHS 090643Z 24006KT 05/05 A3029 RMK A01 T00530051  RH  099%=      5-min Rain = 0
KAHS 090644Z 25006KT 05/05 A3029 RMK A01 T00530051  RH  099%=      5-min Rain = 0
KAHS 090645Z 24007KT 05/05 A3029 RMK A01 T00530051  RH  099%=      5-min Rain = 0
KAHS 090646Z 25008KT 05/05 A3029 RMK A01 T00540052  RH  099%=      5-min Rain = 0
KAHS 090647Z 25008KT 05/05 A3029 RMK A01 T00540052  RH  099%=      5-min Rain = 0
KAHS 090648Z 24008KT 05/05 A3029 RMK A01 T00540052  RH  099%=      5-min Rain = 0
KAHS 090649Z 24007KT 06/05 A3029 RMK A01 T00550053  RH  099%=      5-min Rain = 0
KAHS 090650Z 24008KT 06/05 A3029 RMK A01 T00550053  RH  099%=      5-min Rain = 0
KAHS 090651Z 24008KT 06/05 A3029 RMK A01 T00550054  RH  099%=      5-min Rain = 0
KAHS 090652Z 25007KT 06/05 A3029 RMK A01 T00560054  RH  099%=      5-min Rain = 0
KAHS 090653Z 24008KT 06/05 A3029 RMK A01 T00560054  RH  099%=      5-min Rain = 0
KAHS 090654Z 24008KT 06/05 A3029 RMK A01 T00560054  RH  099%=      5-min Rain = 0
KAHS 090655Z 24008KT 06/05 A3029 RMK A01 T00560054  RH  099%=      5-min Rain = 0
KAHS 090656Z 24008KT 06/05 A3029 RMK A01 T00560054  RH  099%=      5-min Rain = 0
KAHS 090657Z 24007KT 06/06 A3029 RMK A01 T00570055  RH  099%=      5-min Rain = 0
KAHS 090658Z 24008KT 06/06 A3029 RMK A01 T00570055  RH  099%=      5-min Rain = 0
KAHS 090659Z 24007KT 06/05 A3029 RMK A01 T00560054  RH  099%=      5-min Rain = 0
KAHS 090700Z 24008KT 06/05 A3029 RMK A01 T00560054  RH  099%=      5-min Rain = 0
KAHS 090701Z 25008KT 06/06 A3029 RMK A01 T00570055  RH  099%=      5-min Rain = 0
KAHS 090702Z 25008KT 06/06 A3029 RMK A01 T00570055  RH  099%=      5-min Rain = 0
KAHS 090703Z 25008KT 06/06 A3029 RMK A01 T00570055  RH  099%=      5-min Rain = 0
KAHS 090704Z 24008KT 06/06 A3029 RMK A01 T00570055  RH  099%=      5-min Rain = 0
KAHS 090705Z 24007KT 06/06 A3029 RMK A01 T00580055  RH  099%=      5-min Rain = 0
KAHS 090706Z 24007KT 06/06 A3029 RMK A01 T00570055  RH  098%=      5-min Rain = 0
KAHS 090707Z 24008KT 06/06 A3028 RMK A01 T00580055  RH  098%=      5-min Rain = 0
KAHS 090708Z 24007KT 06/06 A3028 RMK A01 T00580055  RH  098%=      5-min Rain = 0
KAHS 090709Z 24008KT 06/06 A3028 RMK A01 T00580055  RH  098%=      5-min Rain = 0
KAHS 090710Z 24008KT 06/06 A3028 RMK A01 T00580056  RH  098%=      5-min Rain = 0
KAHS 090711Z 24007KT 06/06 A3028 RMK A01 T00590056  RH  098%=      5-min Rain = 0
KAHS 090712Z 25008KT 06/06 A3028 RMK A01 T00590056  RH  098%=      5-min Rain = 0
KAHS 090713Z 24008KT 06/06 A3028 RMK A01 T00590057  RH  098%=      5-min Rain = 0
KAHS 090714Z 24008KT 06/06 A3028 RMK A01 T00600057  RH  098%=      5-min Rain = 0
KAHS 090715Z 24007KT 06/06 A3028 RMK A01 T00600057  RH  098%=      5-min Rain = 0
KAHS 090716Z 24007KT 06/06 A3028 RMK A01 T00600058  RH  098%=      5-min Rain = 0
KAHS 090717Z 24008KT 06/06 A3028 RMK A01 T00610058  RH  098%=      5-min Rain = 0
KAHS 090718Z 25007KT 06/06 A3028 RMK A01 T00610058  RH  098%=      5-min Rain = 0
KAHS 090719Z 24008KT 06/06 A3028 RMK A01 T00610058  RH  098%=      5-min Rain = 0
KAHS 090720Z 24008KT 06/06 A3028 RMK A01 T00620059  RH  098%=      5-min Rain = 0
KAHS 090721Z 25007KT 06/06 A3028 RMK A01 T00620060  RH  098%=      5-min Rain = 0
KAHS 090722Z 25008KT 06/06 A3028 RMK A01 T00620059  RH  098%=      5-min Rain = 0
KAHS 090723Z 24007KT 06/06 A3028 RMK A01 T00630060  RH  098%=      5-min Rain = 0
KAHS 090724Z 24007KT 06/06 A3028 RMK A01 T00630060  RH  098%=      5-min Rain = 0
KAHS 090725Z 25007KT 06/06 A3028 RMK A01 T00630060  RH  098%=      5-min Rain = 0
KAHS 090726Z 25008KT 06/06 A3028 RMK A01 T00630060  RH  098%=      5-min Rain = 0
KAHS 090727Z 25008KT 06/06 A3028 RMK A01 T00630060  RH  098%=      5-min Rain = 0
KAHS 090728Z 25008KT 06/06 A3028 RMK A01 T00640061  RH  098%=      5-min Rain = 0
KAHS 090729Z 25008KT 06/06 A3028 RMK A01 T00640060  RH  098%=      5-min Rain = 0
KAHS 090730Z 24008KT 06/06 A3028 RMK A01 T00640060  RH  098%=      5-min Rain = 0
KAHS 090731Z 25008KT 06/06 A3028 RMK A01 T00640060  RH  098%=      5-min Rain = 0
KAHS 090732Z 25007KT 06/06 A3028 RMK A01 T00640060  RH  098%=      5-min Rain = 0
KAHS 090733Z 25007KT 06/06 A3028 RMK A01 T00640060  RH  097%=      5-min Rain = 0
KAHS 090734Z 25007KT 06/06 A3028 RMK A01 T00640060  RH  097%=      5-min Rain = 0
KAHS 090735Z 25007KT 06/06 A3028 RMK A01 T00630059  RH  097%=      5-min Rain = 0
KAHS 090736Z 25008KT 06/06 A3028 RMK A01 T00630059  RH  097%=      5-min Rain = 0
KAHS 090737Z 25007KT 06/06 A3028 RMK A01 T00640059  RH  097%=      5-min Rain = 0
KAHS 090738Z 25008KT 06/06 A3028 RMK A01 T00640059  RH  097%=      5-min Rain = 0
KAHS 090739Z 25007KT 06/06 A3028 RMK A01 T00640059  RH  097%=      5-min Rain = 0
KAHS 090740Z 24008KT 06/06 A3028 RMK A01 T00640059  RH  097%=      5-min Rain = 0
KAHS 090741Z 25008KT 06/06 A3028 RMK A01 T00630059  RH  097%=      5-min Rain = 0
KAHS 090742Z 25008KT 06/06 A3028 RMK A01 T00630059  RH  097%=      5-min Rain = 0
KAHS 090743Z 25008KT 06/06 A3028 RMK A01 T00630058  RH  097%=      5-min Rain = 0
KAHS 090744Z 25008KT 06/06 A3028 RMK A01 T00630058  RH  097%=      5-min Rain = 0
KAHS 090745Z 25008KT 06/06 A3028 RMK A01 T00630058  RH  097%=      5-min Rain = 0
KAHS 090746Z 25007KT 06/06 A3028 RMK A01 T00630058  RH  097%=      5-min Rain = 0
KAHS 090747Z 25007KT 06/06 A3028 RMK A01 T00630058  RH  097%=      5-min Rain = 0
KAHS 090748Z 25007KT 06/06 A3028 RMK A01 T00620057  RH  097%=      5-min Rain = 0
KAHS 090749Z 25007KT 06/06 A3028 RMK A01 T00620056  RH  097%=      5-min Rain = 0
KAHS 090750Z 25006KT 06/06 A3028 RMK A01 T00610055  RH  096%=      5-min Rain = 0
KAHS 090751Z 25007KT 06/05 A3028 RMK A01 T00600054  RH  096%=      5-min Rain = 0
KAHS 090752Z 25007KT 06/05 A3028 RMK A01 T00600054  RH  096%=      5-min Rain = 0
KAHS 090753Z 25007KT 06/05 A3028 RMK A01 T00590054  RH  096%=      5-min Rain = 0
KAHS 090754Z 25006KT 06/05 A3028 RMK A01 T00590054  RH  096%=      5-min Rain = 0
KAHS 090755Z 25006KT 06/05 A3028 RMK A01 T00580053  RH  096%=      5-min Rain = 0
KAHS 090756Z 26006KT 06/05 A3028 RMK A01 T00580052  RH  096%=      5-min Rain = 0
KAHS 090757Z 26006KT 06/05 A3028 RMK A01 T00560051  RH  096%=      5-min Rain = 0
KAHS 090758Z 26007KT 06/05 A3028 RMK A01 T00550050  RH  096%=      5-min Rain = 0
KAHS 090759Z 26007KT 05/05 A3028 RMK A01 T00540049  RH  096%=      5-min Rain = 0
KAHS 090800Z 26007KT 05/05 A3028 RMK A01 T00540049  RH  096%=      5-min Rain = 0
KAHS 090801Z 26007KT 05/05 A3028 RMK A01 T00540049  RH  096%=      5-min Rain = 0
KAHS 090802Z 26007KT 05/05 A3028 RMK A01 T00530048  RH  097%=      5-min Rain = 0
KAHS 090803Z 26007KT 05/05 A3028 RMK A01 T00530048  RH  097%=      5-min Rain = 0
KAHS 090804Z 26007KT 05/05 A3027 RMK A01 T00530048  RH  097%=      5-min Rain = 0
KAHS 090805Z 26007KT 05/05 A3027 RMK A01 T00530049  RH  097%=      5-min Rain = 0
KAHS 090806Z 26007KT 05/05 A3027 RMK A01 T00530049  RH  097%=      5-min Rain = 0
KAHS 090807Z 26006KT 05/05 A3027 RMK A01 T00530049  RH  097%=      5-min Rain = 0
KAHS 090808Z 26007KT 05/05 A3027 RMK A01 T00530049  RH  097%=      5-min Rain = 0
KAHS 090809Z 26007KT 05/05 A3027 RMK A01 T00530049  RH  097%=      5-min Rain = 0
KAHS 090810Z 26007KT 05/05 A3027 RMK A01 T00530049  RH  097%=      5-min Rain = 0
KAHS 090811Z 27007KT 05/05 A3027 RMK A01 T00520048  RH  097%=      5-min Rain = 0
KAHS 090812Z 26007KT 05/05 A3027 RMK A01 T00520048  RH  097%=      5-min Rain = 0
KAHS 090813Z 26007KT 05/05 A3027 RMK A01 T00520048  RH  097%=      5-min Rain = 0
KAHS 090814Z 26007KT 05/05 A3027 RMK A01 T00520049  RH  097%=      5-min Rain = 0
KAHS 090815Z 26007KT 05/05 A3027 RMK A01 T00520049  RH  097%=      5-min Rain = 0
KAHS 090816Z 26007KT 05/05 A3027 RMK A01 T00520048  RH  097%=      5-min Rain = 0
KAHS 090817Z 26007KT 05/05 A3027 RMK A01 T00520048  RH  097%=      5-min Rain = 0
KAHS 090818Z 26007KT 05/05 A3027 RMK A01 T00520048  RH  097%=      5-min Rain = 0
KAHS 090819Z 26007KT 05/05 A3027 RMK A01 T00520048  RH  097%=      5-min Rain = 0
KAHS 090820Z 26007KT 05/05 A3027 RMK A01 T00510047  RH  097%=      5-min Rain = 0
KAHS 090821Z 26007KT 05/05 A3027 RMK A01 T00510047  RH  097%=      5-min Rain = 0
KAHS 090822Z 26007KT 05/05 A3027 RMK A01 T00510047  RH  097%=      5-min Rain = 0
KAHS 090823Z 26008KT 05/05 A3027 RMK A01 T00500047  RH  097%=      5-min Rain = 0
KAHS 090824Z 26008KT 05/05 A3027 RMK A01 T00500047  RH  097%=      5-min Rain = 0
KAHS 090825Z 26008KT 05/05 A3027 RMK A01 T00500046  RH  097%=      5-min Rain = 0
KAHS 090826Z 26008KT 05/05 A3027 RMK A01 T00500046  RH  098%=      5-min Rain = 0
KAHS 090827Z 26008KT 05/05 A3027 RMK A01 T00500046  RH  098%=      5-min Rain = 0
KAHS 090828Z 26008KT 05/05 A3027 RMK A01 T00490046  RH  098%=      5-min Rain = 0
KAHS 090829Z 26008KT 05/05 A3027 RMK A01 T00490046  RH  098%=      5-min Rain = 0
KAHS 090830Z 25008KT 05/05 A3027 RMK A01 T00490046  RH  098%=      5-min Rain = 0
KAHS 090831Z 25008KT 05/05 A3027 RMK A01 T00490046  RH  098%=      5-min Rain = 0
KAHS 090832Z 25008KT 05/05 A3027 RMK A01 T00490046  RH  098%=      5-min Rain = 0
KAHS 090833Z 25007KT 05/05 A3026 RMK A01 T00490046  RH  098%=      5-min Rain = 0
KAHS 090834Z 25007KT 05/05 A3026 RMK A01 T00490046  RH  098%=      5-min Rain = 0
KAHS 090835Z 25007KT 05/05 A3026 RMK A01 T00490046  RH  098%=      5-min Rain = 0
KAHS 090836Z 25007KT 05/05 A3026 RMK A01 T00490046  RH  098%=      5-min Rain = 0
KAHS 090837Z 25007KT 05/05 A3026 RMK A01 T00480045  RH  098%=      5-min Rain = 0
KAHS 090838Z 26007KT 05/05 A3026 RMK A01 T00480045  RH  098%=      5-min Rain = 0
KAHS 090839Z 26007KT 05/05 A3026 RMK A01 T00480045  RH  098%=      5-min Rain = 0
KAHS 090840Z 26006KT 05/04 A3026 RMK A01 T00470044  RH  098%=      5-min Rain = 0
KAHS 090841Z 27006KT 05/04 A3026 RMK A01 T00470044  RH  098%=      5-min Rain = 0
KAHS 090842Z 27006KT 05/04 A3026 RMK A01 T00460043  RH  098%=      5-min Rain = 0
KAHS 090843Z 27006KT 05/04 A3026 RMK A01 T00470043  RH  098%=      5-min Rain = 0
KAHS 090844Z 27006KT 05/04 A3026 RMK A01 T00460043  RH  098%=      5-min Rain = 0
KAHS 090845Z 27006KT 05/04 A3026 RMK A01 T00470044  RH  098%=      5-min Rain = 0
KAHS 090846Z 27006KT 05/04 A3026 RMK A01 T00470044  RH  098%=      5-min Rain = 0
KAHS 090847Z 27006KT 05/04 A3026 RMK A01 T00470044  RH  098%=      5-min Rain = 0
KAHS 090848Z 27006KT 05/05 A3026 RMK A01 T00470045  RH  098%=      5-min Rain = 0
KAHS 090849Z 27006KT 05/04 A3026 RMK A01 T00470044  RH  098%=      5-min Rain = 0
KAHS 090850Z 27006KT 05/05 A3026 RMK A01 T00470045  RH  098%=      5-min Rain = 0
KAHS 090851Z 27006KT 05/05 A3026 RMK A01 T00470045  RH  098%=      5-min Rain = 0
KAHS 090852Z 28006KT 05/05 A3026 RMK A01 T00470045  RH  098%=      5-min Rain = 0
KAHS 090853Z 28006KT 05/05 A3026 RMK A01 T00470045  RH  098%=      5-min Rain = 0
KAHS 090854Z 28006KT 05/04 A3026 RMK A01 T00470044  RH  098%=      5-min Rain = 0
KAHS 090855Z 28006KT 05/04 A3026 RMK A01 T00470044  RH  098%=      5-min Rain = 0
KAHS 090856Z 28006KT 05/05 A3026 RMK A01 T00470045  RH  098%=      5-min Rain = 0
KAHS 090857Z 28006KT 05/05 A3026 RMK A01 T00470045  RH  098%=      5-min Rain = 0
KAHS 090858Z 27006KT 05/05 A3026 RMK A01 T00470045  RH  098%=      5-min Rain = 0
KAHS 090859Z 27007KT 05/05 A3026 RMK A01 T00470045  RH  098%=      5-min Rain = 0
KAHS 090900Z 27007KT 05/05 A3026 RMK A01 T00470045  RH  098%=      5-min Rain = 0
KAHS 090901Z 27006KT 05/05 A3026 RMK A01 T00470045  RH  098%=      5-min Rain = 0
KAHS 090902Z 27007KT 05/05 A3026 RMK A01 T00470045  RH  098%=      5-min Rain = 0
KAHS 090903Z 27007KT 05/05 A3026 RMK A01 T00470045  RH  098%=      5-min Rain = 0
KAHS 090904Z 27007KT 05/05 A3026 RMK A01 T00470045  RH  098%=      5-min Rain = 0
KAHS 090905Z 27007KT 05/05 A3025 RMK A01 T00470045  RH  099%=      5-min Rain = 0
KAHS 090906Z 27007KT 05/05 A3025 RMK A01 T00480046  RH  099%=      5-min Rain = 0
KAHS 090907Z 27007KT 05/05 A3025 RMK A01 T00480046  RH  099%=      5-min Rain = 0
KAHS 090908Z 27007KT 05/05 A3025 RMK A01 T00480046  RH  099%=      5-min Rain = 0
KAHS 090909Z 27007KT 05/05 A3025 RMK A01 T00480046  RH  099%=      5-min Rain = 0
KAHS 090910Z 27008KT 05/05 A3025 RMK A01 T00490047  RH  099%=      5-min Rain = 0
KAHS 090911Z 26008KT 05/05 A3025 RMK A01 T00490047  RH  099%=      5-min Rain = 0
KAHS 090912Z 26008KT 05/05 A3025 RMK A01 T00500048  RH  099%=      5-min Rain = 0
KAHS 090913Z 26008KT 05/05 A3025 RMK A01 T00500048  RH  099%=      5-min Rain = 0
KAHS 090914Z 26008KT 05/05 A3025 RMK A01 T00500048  RH  099%=      5-min Rain = 0
KAHS 090915Z 26008KT 05/05 A3025 RMK A01 T00500048  RH  099%=      5-min Rain = 0
KAHS 090916Z 26008KT 05/05 A3025 RMK A01 T00510049  RH  099%=      5-min Rain = 0
KAHS 090917Z 25008KT 05/05 A3025 RMK A01 T00510049  RH  099%=      5-min Rain = 0
KAHS 090918Z 25007KT 05/05 A3025 RMK A01 T00510049  RH  099%=      5-min Rain = 0
KAHS 090919Z 25007KT 05/05 A3025 RMK A01 T00510049  RH  099%=      5-min Rain = 0
KAHS 090920Z 25007KT 05/05 A3025 RMK A01 T00510049  RH  099%=      5-min Rain = 0
KAHS 090921Z 24006KT 05/05 A3025 RMK A01 T00510049  RH  099%=      5-min Rain = 0
KAHS 090922Z 25006KT 05/05 A3025 RMK A01 T00510049  RH  099%=      5-min Rain = 0
KAHS 090923Z 25007KT 05/05 A3025 RMK A01 T00500048  RH  099%=      5-min Rain = 0
KAHS 090924Z 25007KT 05/05 A3025 RMK A01 T00500048  RH  099%=      5-min Rain = 0
KAHS 090925Z 25007KT 05/05 A3025 RMK A01 T00500048  RH  099%=      5-min Rain = 0
KAHS 090926Z 25007KT 05/05 A3025 RMK A01 T00500048  RH  099%=      5-min Rain = 0
KAHS 090927Z 26007KT 05/05 A3025 RMK A01 T00500048  RH  099%=      5-min Rain = 0
KAHS 090928Z 26006KT 05/05 A3025 RMK A01 T00500048  RH  099%=      5-min Rain = 0
KAHS 090929Z 25006KT 05/05 A3025 RMK A01 T00500048  RH  099%=      5-min Rain = 0
KAHS 090930Z 25006KT 05/05 A3025 RMK A01 T00500048  RH  099%=      5-min Rain = 0
KAHS 090931Z 25006KT 05/05 A3025 RMK A01 T00500048  RH  099%=      5-min Rain = 0
KAHS 090932Z 25006KT 05/05 A3025 RMK A01 T00500048  RH  099%=      5-min Rain = 0
KAHS 090933Z 26006KT 05/05 A3025 RMK A01 T00500048  RH  099%=      5-min Rain = 0
KAHS 090934Z 26006KT 05/05 A3025 RMK A01 T00490047  RH  099%=      5-min Rain = 0
KAHS 090935Z 26006KT 05/05 A3025 RMK A01 T00490047  RH  099%=      5-min Rain = 0
KAHS 090936Z 26006KT 05/05 A3025 RMK A01 T00490047  RH  099%=      5-min Rain = 0
KAHS 090937Z 26006KT 05/05 A3025 RMK A01 T00490047  RH  099%=      5-min Rain = 0
KAHS 090938Z 26006KT 05/05 A3025 RMK A01 T00480047  RH  099%=      5-min Rain = 0
KAHS 090939Z 26006KT 05/05 A3025 RMK A01 T00480046  RH  099%=      5-min Rain = 0
KAHS 090940Z 26007KT 05/05 A3025 RMK A01 T00480047  RH  099%=      5-min Rain = 0
KAHS 090941Z 26006KT 05/05 A3025 RMK A01 T00480047  RH  099%=      5-min Rain = 0
KAHS 090942Z 26007KT 05/05 A3025 RMK A01 T00480047  RH  099%=      5-min Rain = 0
KAHS 090943Z 26006KT 05/05 A3025 RMK A01 T00480047  RH  099%=      5-min Rain = 0
KAHS 090944Z 26006KT 05/05 A3025 RMK A01 T00480047  RH  099%=      5-min Rain = 0
KAHS 090945Z 26006KT 05/05 A3025 RMK A01 T00480047  RH  099%=      5-min Rain = 0
KAHS 090946Z 26005KT 05/05 A3025 RMK A01 T00480047  RH  099%=      5-min Rain = 0
KAHS 090947Z 26006KT 05/05 A3025 RMK A01 T00480047  RH  099%=      5-min Rain = 0
KAHS 090948Z 26005KT 05/05 A3025 RMK A01 T00480047  RH  099%=      5-min Rain = 0
KAHS 090949Z 27005KT 05/05 A3025 RMK A01 T00480047  RH  099%=      5-min Rain = 0
KAHS 090950Z 27005KT 05/05 A3025 RMK A01 T00480047  RH  099%=      5-min Rain = 0
KAHS 090951Z 27004KT 05/05 A3025 RMK A01 T00480047  RH  099%=      5-min Rain = 0
KAHS 090952Z 27004KT 05/05 A3025 RMK A01 T00480047  RH  099%=      5-min Rain = 0
KAHS 090953Z 27004KT 05/05 A3025 RMK A01 T00480046  RH  099%=      5-min Rain = 0
KAHS 090954Z 27004KT 05/05 A3025 RMK A01 T00480046  RH  099%=      5-min Rain = 0
KAHS 090955Z 28004KT 05/05 A3025 RMK A01 T00480046  RH  099%=      5-min Rain = 0
KAHS 090956Z 27004KT 05/05 A3025 RMK A01 T00480046  RH  099%=      5-min Rain = 0
KAHS 090957Z 27004KT 05/05 A3025 RMK A01 T00480046  RH  099%=      5-min Rain = 0
KAHS 090958Z 27004KT 05/05 A3025 RMK A01 T00480046  RH  099%=      5-min Rain = 0
KAHS 090959Z 27005KT 05/05 A3025 RMK A01 T00470045  RH  099%=      5-min Rain = 0
KAHS 091000Z 27005KT 05/05 A3025 RMK A01 T00470045  RH  099%=      5-min Rain = 0
KAHS 091001Z 27005KT 05/05 A3025 RMK A01 T00470045  RH  099%=      5-min Rain = 0
KAHS 091002Z 27005KT 05/05 A3025 RMK A01 T00460045  RH  099%=      5-min Rain = 0
KAHS 091003Z 27005KT 05/05 A3025 RMK A01 T00470045  RH  099%=      5-min Rain = 0
KAHS 091004Z 27005KT 05/05 A3025 RMK A01 T00470045  RH  099%=      5-min Rain = 0
KAHS 091005Z 27005KT 05/05 A3025 RMK A01 T00470045  RH  099%=      5-min Rain = 0
KAHS 091006Z 27005KT 05/05 A3025 RMK A01 T00470045  RH  099%=      5-min Rain = 0
KAHS 091007Z 27005KT 05/05 A3025 RMK A01 T00470045  RH  099%=      5-min Rain = 0
KAHS 091008Z 28005KT 05/05 A3025 RMK A01 T00470045  RH  099%=      5-min Rain = 0
KAHS 091009Z 27005KT 05/05 A3025 RMK A01 T00470045  RH  099%=      5-min Rain = 0
KAHS 091010Z 28005KT 05/05 A3025 RMK A01 T00470045  RH  099%=      5-min Rain = 0
KAHS 091011Z 28006KT 05/05 A3025 RMK A01 T00460045  RH  099%=      5-min Rain = 0
KAHS 091012Z 28006KT 05/05 A3025 RMK A01 T00460045  RH  099%=      5-min Rain = 0
KAHS 091013Z 28006KT 05/05 A3025 RMK A01 T00460045  RH  099%=      5-min Rain = 0
KAHS 091014Z 28007KT 05/05 A3025 RMK A01 T00460045  RH  099%=      5-min Rain = 0
KAHS 091015Z 28007KT 05/05 A3025 RMK A01 T00460045  RH  099%=      5-min Rain = 0
KAHS 091016Z 27007KT 05/05 A3025 RMK A01 T00460045  RH  099%=      5-min Rain = 0
KAHS 091017Z 28007KT 05/05 A3025 RMK A01 T00460045  RH  099%=      5-min Rain = 0
KAHS 091018Z 27007KT 05/05 A3025 RMK A01 T00460045  RH  099%=      5-min Rain = 0
KAHS 091019Z 27007KT 05/05 A3025 RMK A01 T00460045  RH  099%=      5-min Rain = 0
KAHS 091020Z 27007KT 05/05 A3025 RMK A01 T00460045  RH  099%=      5-min Rain = 0
KAHS 091021Z 27007KT 05/05 A3025 RMK A01 T00470045  RH  099%=      5-min Rain = 0
KAHS 091022Z 27007KT 05/05 A3025 RMK A01 T00470046  RH  099%=      5-min Rain = 0
KAHS 091023Z 27006KT 05/05 A3025 RMK A01 T00470046  RH  099%=      5-min Rain = 0
KAHS 091024Z 27006KT 05/05 A3025 RMK A01 T00470045  RH  099%=      5-min Rain = 0
KAHS 091025Z 27006KT 05/05 A3025 RMK A01 T00470046  RH  099%=      5-min Rain = 0
KAHS 091026Z 27007KT 05/05 A3025 RMK A01 T00470046  RH  099%=      5-min Rain = 0
KAHS 091027Z 27007KT 05/05 A3025 RMK A01 T00470046  RH  099%=      5-min Rain = 0
KAHS 091028Z 27007KT 05/05 A3025 RMK A01 T00480047  RH  099%=      5-min Rain = 0
KAHS 091029Z 26006KT 05/05 A3025 RMK A01 T00480047  RH  099%=      5-min Rain = 0
KAHS 091030Z 26007KT 05/05 A3025 RMK A01 T00480047  RH  099%=      5-min Rain = 0
KAHS 091031Z 26007KT 05/05 A3024 RMK A01 T00480047  RH  099%=      5-min Rain = 0
KAHS 091032Z 26008KT 05/05 A3024 RMK A01 T00480047  RH  099%=      5-min Rain = 0
KAHS 091033Z 26007KT 05/05 A3024 RMK A01 T00480047  RH  099%=      5-min Rain = 0
KAHS 091034Z 26007KT 05/05 A3024 RMK A01 T00490048  RH  099%=      5-min Rain = 0
KAHS 091035Z 26008KT 05/05 A3024 RMK A01 T00490048  RH  099%=      5-min Rain = 0
KAHS 091036Z 26008KT 05/05 A3024 RMK A01 T00500048  RH  099%=      5-min Rain = 0
KAHS 091037Z 26008KT 05/05 A3024 RMK A01 T00510049  RH  099%=      5-min Rain = 0
KAHS 091038Z 26008KT 05/05 A3024 RMK A01 T00520050  RH  099%=      5-min Rain = 0
KAHS 091039Z 26008KT 05/05 A3024 RMK A01 T00520051  RH  099%=      5-min Rain = 0
KAHS 091040Z 26008KT 05/05 A3024 RMK A01 T00530052  RH  099%=      5-min Rain = 0
KAHS 091041Z 26007KT 05/05 A3024 RMK A01 T00540052  RH  099%=      5-min Rain = 0
KAHS 091042Z 26007KT 05/05 A3024 RMK A01 T00540052  RH  099%=      5-min Rain = 0
KAHS 091043Z 26009KT 05/05 A3024 RMK A01 T00540053  RH  099%=      5-min Rain = 0
KAHS 091044Z 26007KT 06/05 A3024 RMK A01 T00550054  RH  099%=      5-min Rain = 0
KAHS 091045Z 26007KT 06/05 A3024 RMK A01 T00550054  RH  099%=      5-min Rain = 0
KAHS 091046Z 26008KT 06/05 A3024 RMK A01 T00550054  RH  099%=      5-min Rain = 0
KAHS 091047Z 26008KT 06/05 A3024 RMK A01 T00550053  RH  099%=      5-min Rain = 0
KAHS 091048Z 26008KT 06/05 A3024 RMK A01 T00550053  RH  099%=      5-min Rain = 0
KAHS 091049Z 26008KT 06/05 A3024 RMK A01 T00550053  RH  099%=      5-min Rain = 0
KAHS 091050Z 26009KT 06/05 A3024 RMK A01 T00550053  RH  099%=      5-min Rain = 0
KAHS 091051Z 25009KT 06/05 A3024 RMK A01 T00550053  RH  099%=      5-min Rain = 0
KAHS 091052Z 26009KT 06/05 A3024 RMK A01 T00550053  RH  099%=      5-min Rain = 0
KAHS 091053Z 26009KT 06/05 A3024 RMK A01 T00550053  RH  099%=      5-min Rain = 0
KAHS 091054Z 26009KT 06/05 A3024 RMK A01 T00550053  RH  099%=      5-min Rain = 0
KAHS 091055Z 26009KT 05/05 A3024 RMK A01 T00540052  RH  099%=      5-min Rain = 0
KAHS 091056Z 26009KT 05/05 A3024 RMK A01 T00540052  RH  099%=      5-min Rain = 0
KAHS 091057Z 26008KT 06/05 A3024 RMK A01 T00550053  RH  098%=      5-min Rain = 0
KAHS 091058Z 26009KT 06/05 A3024 RMK A01 T00550052  RH  098%=      5-min Rain = 0
KAHS 091059Z 26008KT 05/05 A3024 RMK A01 T00540052  RH  098%=      5-min Rain = 0
KAHS 091100Z 26008KT 05/05 A3024 RMK A01 T00540052  RH  098%=      5-min Rain = 0
KAHS 091101Z 25008KT 05/05 A3024 RMK A01 T00540051  RH  098%=      5-min Rain = 0
KAHS 091102Z 25008KT 05/05 A3024 RMK A01 T00540051  RH  098%=      5-min Rain = 0
KAHS 091103Z 25008KT 05/05 A3024 RMK A01 T00530051  RH  098%=      5-min Rain = 0
KAHS 091104Z 25008KT 05/05 A3024 RMK A01 T00530050  RH  098%=      5-min Rain = 0
KAHS 091105Z 25008KT 05/05 A3024 RMK A01 T00530050  RH  098%=      5-min Rain = 0
KAHS 091106Z 25007KT 05/05 A3024 RMK A01 T00530050  RH  098%=      5-min Rain = 0
KAHS 091107Z 25007KT 05/05 A3024 RMK A01 T00530050  RH  098%=      5-min Rain = 0
KAHS 091108Z 25006KT 05/05 A3024 RMK A01 T00530050  RH  098%=      5-min Rain = 0
KAHS 091109Z 26006KT 05/05 A3024 RMK A01 T00530050  RH  098%=      5-min Rain = 0
KAHS 091110Z 26006KT 05/05 A3024 RMK A01 T00520050  RH  098%=      5-min Rain = 0
KAHS 091111Z 26007KT 05/05 A3024 RMK A01 T00520049  RH  098%=      5-min Rain = 0
KAHS 091112Z 26006KT 05/05 A3024 RMK A01 T00520049  RH  098%=      5-min Rain = 0
KAHS 091113Z 26006KT 05/05 A3024 RMK A01 T00520049  RH  098%=      5-min Rain = 0
KAHS 091114Z 26007KT 05/05 A3024 RMK A01 T00520049  RH  098%=      5-min Rain = 0
KAHS 091115Z 26007KT 05/05 A3024 RMK A01 T00520049  RH  098%=      5-min Rain = 0
KAHS 091116Z 26006KT 05/05 A3024 RMK A01 T00520049  RH  098%=      5-min Rain = 0
KAHS 091117Z 26006KT 05/05 A3024 RMK A01 T00520049  RH  098%=      5-min Rain = 0
KAHS 091118Z 26007KT 05/05 A3024 RMK A01 T00520049  RH  098%=      5-min Rain = 0
KAHS 091119Z 26007KT 05/05 A3024 RMK A01 T00510048  RH  098%=      5-min Rain = 0
KAHS 091120Z 26007KT 05/05 A3024 RMK A01 T00510048  RH  098%=      5-min Rain = 0
KAHS 091121Z 26006KT 05/05 A3024 RMK A01 T00510048  RH  098%=      5-min Rain = 0
KAHS 091122Z 26006KT 05/05 A3024 RMK A01 T00510048  RH  098%=      5-min Rain = 0
KAHS 091123Z 25006KT 05/05 A3024 RMK A01 T00510048  RH  098%=      5-min Rain = 0
KAHS 091124Z 26007KT 05/05 A3024 RMK A01 T00510048  RH  098%=      5-min Rain = 0
KAHS 091125Z 26007KT 05/05 A3024 RMK A01 T00510048  RH  098%=      5-min Rain = 0
KAHS 091126Z 26007KT 05/05 A3024 RMK A01 T00510048  RH  098%=      5-min Rain = 0
KAHS 091127Z 26006KT 05/05 A3024 RMK A01 T00510048  RH  098%=      5-min Rain = 0
KAHS 091128Z 26006KT 05/05 A3024 RMK A01 T00510049  RH  098%=      5-min Rain = 0
KAHS 091129Z 26006KT 05/05 A3024 RMK A01 T00510048  RH  098%=      5-min Rain = 0
KAHS 091130Z 26006KT 05/05 A3024 RMK A01 T00510048  RH  098%=      5-min Rain = 0
KAHS 091131Z 27006KT 05/05 A3024 RMK A01 T00520049  RH  098%=      5-min Rain = 0
KAHS 091132Z 26006KT 05/05 A3024 RMK A01 T00510048  RH  098%=      5-min Rain = 0
KAHS 091133Z 26006KT 05/05 A3024 RMK A01 T00510048  RH  098%=      5-min Rain = 0
KAHS 091134Z 26006KT 05/05 A3024 RMK A01 T00500047  RH  098%=      5-min Rain = 0
KAHS 091135Z 26006KT 05/05 A3024 RMK A01 T00500047  RH  098%=      5-min Rain = 0
KAHS 091136Z 26007KT 05/05 A3024 RMK A01 T00500047  RH  098%=      5-min Rain = 0
KAHS 091137Z 26007KT 05/05 A3024 RMK A01 T00500047  RH  098%=      5-min Rain = 0
KAHS 091138Z 26007KT 05/05 A3024 RMK A01 T00500047  RH  098%=      5-min Rain = 0
KAHS 091139Z 26007KT 05/05 A3024 RMK A01 T00500047  RH  098%=      5-min Rain = 0
KAHS 091140Z 26007KT 05/05 A3024 RMK A01 T00510047  RH  098%=      5-min Rain = 0
KAHS 091141Z 26008KT 05/05 A3024 RMK A01 T00510048  RH  098%=      5-min Rain = 0
KAHS 091142Z 26008KT 05/05 A3024 RMK A01 T00510048  RH  098%=      5-min Rain = 0
KAHS 091143Z 26008KT 05/05 A3024 RMK A01 T00510049  RH  098%=      5-min Rain = 0
KAHS 091144Z 25008KT 05/05 A3024 RMK A01 T00520049  RH  098%=      5-min Rain = 0
KAHS 091145Z 25008KT 05/05 A3024 RMK A01 T00520049  RH  098%=      5-min Rain = 0
KAHS 091146Z 25008KT 05/05 A3024 RMK A01 T00520049  RH  098%=      5-min Rain = 0
KAHS 091147Z 26008KT 05/05 A3024 RMK A01 T00520049  RH  098%=      5-min Rain = 0
KAHS 091148Z 25007KT 05/05 A3024 RMK A01 T00530050  RH  098%=      5-min Rain = 0
KAHS 091149Z 26008KT 05/05 A3024 RMK A01 T00530050  RH  098%=      5-min Rain = 0
KAHS 091150Z 26008KT 05/05 A3024 RMK A01 T00530050  RH  098%=      5-min Rain = 0
KAHS 091151Z 26007KT 05/05 A3024 RMK A01 T00530050  RH  098%=      5-min Rain = 0
KAHS 091152Z 26007KT 05/05 A3024 RMK A01 T00530050  RH  098%=      5-min Rain = 0
KAHS 091153Z 26007KT 05/05 A3024 RMK A01 T00520049  RH  098%=      5-min Rain = 0
KAHS 091154Z 26007KT 05/05 A3024 RMK A01 T00520049  RH  098%=      5-min Rain = 0
KAHS 091155Z 25007KT 05/05 A3024 RMK A01 T00520049  RH  098%=      5-min Rain = 0
KAHS 091156Z 25007KT 05/05 A3024 RMK A01 T00520049  RH  098%=      5-min Rain = 0
KAHS 091157Z 25008KT 05/05 A3024 RMK A01 T00520049  RH  098%=      5-min Rain = 0
KAHS 091158Z 25008KT 05/05 A3024 RMK A01 T00520049  RH  098%=      5-min Rain = 0
KAHS 091159Z 25007KT 05/05 A3024 RMK A01 T00530049  RH  098%=      5-min Rain = 0
KAHS 091200Z 25007KT 05/05 A3024 RMK A01 T00530050  RH  098%=      5-min Rain = 0
KAHS 091201Z 25006KT 05/05 A3024 RMK A01 T00530050  RH  098%=      5-min Rain = 0
KAHS 091202Z 26006KT 05/05 A3024 RMK A01 T00530049  RH  098%=      5-min Rain = 0
KAHS 091203Z 26006KT 05/05 A3024 RMK A01 T00530049  RH  097%=      5-min Rain = 0
KAHS 091204Z 26006KT 05/05 A3024 RMK A01 T00520049  RH  097%=      5-min Rain = 0
KAHS 091205Z 25007KT 05/05 A3024 RMK A01 T00520049  RH  097%=      5-min Rain = 0
KAHS 091206Z 25006KT 05/05 A3024 RMK A01 T00520049  RH  097%=      5-min Rain = 0
KAHS 091207Z 25006KT 05/05 A3024 RMK A01 T00520049  RH  097%=      5-min Rain = 0
KAHS 091208Z 25006KT 05/05 A3024 RMK A01 T00520048  RH  097%=      5-min Rain = 0
KAHS 091209Z 25006KT 05/05 A3024 RMK A01 T00520049  RH  097%=      5-min Rain = 0
KAHS 091210Z 25007KT 05/05 A3024 RMK A01 T00530049  RH  097%=      5-min Rain = 0
KAHS 091211Z 25006KT 05/05 A3024 RMK A01 T00530049  RH  097%=      5-min Rain = 0
KAHS 091212Z 25007KT 05/05 A3024 RMK A01 T00520049  RH  097%=      5-min Rain = 0
KAHS 091213Z 26006KT 05/05 A3024 RMK A01 T00520049  RH  097%=      5-min Rain = 0
KAHS 091214Z 25007KT 05/05 A3024 RMK A01 T00520049  RH  097%=      5-min Rain = 0
KAHS 091215Z 25007KT 05/05 A3024 RMK A01 T00520049  RH  097%=      5-min Rain = 0
KAHS 091216Z 25008KT 05/05 A3024 RMK A01 T00520049  RH  097%=      5-min Rain = 0
KAHS 091217Z 25008KT 05/05 A3024 RMK A01 T00520049  RH  097%=      5-min Rain = 0
KAHS 091218Z 25008KT 05/05 A3024 RMK A01 T00520049  RH  097%=      5-min Rain = 0
KAHS 091219Z 25008KT 05/05 A3024 RMK A01 T00520049  RH  097%=      5-min Rain = 0
KAHS 091220Z 25009KT 05/05 A3024 RMK A01 T00530049  RH  097%=      5-min Rain = 0
KAHS 091221Z 25009KT 05/05 A3024 RMK A01 T00530049  RH  097%=      5-min Rain = 0
KAHS 091222Z 26008KT 05/05 A3024 RMK A01 T00530049  RH  097%=      5-min Rain = 0
KAHS 091223Z 26008KT 05/05 A3024 RMK A01 T00530050  RH  097%=      5-min Rain = 0
KAHS 091224Z 26008KT 05/05 A3024 RMK A01 T00540050  RH  097%=      5-min Rain = 0
KAHS 091225Z 26008KT 05/05 A3024 RMK A01 T00540050  RH  097%=      5-min Rain = 0
KAHS 091226Z 26008KT 05/05 A3024 RMK A01 T00540050  RH  097%=      5-min Rain = 0
KAHS 091227Z 26008KT 05/05 A3024 RMK A01 T00540050  RH  097%=      5-min Rain = 0
KAHS 091228Z 26009KT 06/05 A3024 RMK A01 T00550051  RH  097%=      5-min Rain = 0
KAHS 091229Z 26008KT 06/05 A3024 RMK A01 T00550051  RH  097%=      5-min Rain = 0
KAHS 091230Z 26008KT 06/05 A3024 RMK A01 T00550051  RH  097%=      5-min Rain = 0
KAHS 091231Z 26008KT 06/05 A3024 RMK A01 T00560052  RH  097%=      5-min Rain = 0
KAHS 091232Z 26008KT 06/05 A3024 RMK A01 T00560052  RH  097%=      5-min Rain = 0
KAHS 091233Z 26008KT 06/05 A3024 RMK A01 T00560052  RH  097%=      5-min Rain = 0
KAHS 091234Z 27008KT 06/05 A3024 RMK A01 T00570052  RH  097%=      5-min Rain = 0
KAHS 091235Z 26009KT 06/05 A3024 RMK A01 T00570052  RH  097%=      5-min Rain = 0
KAHS 091236Z 26007KT 06/05 A3024 RMK A01 T00580053  RH  097%=      5-min Rain = 0
KAHS 091237Z 26007KT 06/05 A3024 RMK A01 T00580053  RH  097%=      5-min Rain = 0
KAHS 091238Z 26008KT 06/05 A3024 RMK A01 T00580052  RH  096%=      5-min Rain = 0
KAHS 091239Z 26008KT 06/05 A3024 RMK A01 T00580052  RH  096%=      5-min Rain = 0
KAHS 091240Z 26008KT 06/05 A3024 RMK A01 T00580052  RH  096%=      5-min Rain = 0
KAHS 091241Z 26008KT 06/05 A3024 RMK A01 T00580053  RH  096%=      5-min Rain = 0
KAHS 091242Z 26008KT 06/05 A3024 RMK A01 T00580053  RH  096%=      5-min Rain = 0
KAHS 091243Z 26008KT 06/05 A3024 RMK A01 T00580053  RH  096%=      5-min Rain = 0
KAHS 091244Z 26008KT 06/05 A3024 RMK A01 T00580052  RH  096%=      5-min Rain = 0
KAHS 091245Z 26008KT 06/05 A3024 RMK A01 T00580052  RH  096%=      5-min Rain = 0
KAHS 091246Z 27007KT 06/05 A3024 RMK A01 T00580052  RH  096%=      5-min Rain = 0
KAHS 091247Z 27008KT 06/05 A3024 RMK A01 T00580052  RH  096%=      5-min Rain = 0
KAHS 091248Z 27008KT 06/05 A3025 RMK A01 T00580051  RH  096%=      5-min Rain = 0
KAHS 091249Z 27009KT 06/05 A3025 RMK A01 T00580051  RH  096%=      5-min Rain = 0
KAHS 091250Z 27008KT 06/05 A3025 RMK A01 T00580051  RH  096%=      5-min Rain = 0
KAHS 091251Z 27007KT 06/05 A3025 RMK A01 T00570051  RH  096%=      5-min Rain = 0
KAHS 091252Z 27008KT 06/05 A3025 RMK A01 T00570050  RH  095%=      5-min Rain = 0
KAHS 091253Z 27008KT 06/05 A3025 RMK A01 T00570050  RH  096%=      5-min Rain = 0
KAHS 091254Z 27007KT 06/05 A3025 RMK A01 T00570050  RH  096%=      5-min Rain = 0
KAHS 091255Z 27007KT 06/05 A3025 RMK A01 T00570050  RH  096%=      5-min Rain = 0
KAHS 091256Z 27009KT 06/05 A3025 RMK A01 T00560049  RH  095%=      5-min Rain = 0
KAHS 091257Z 26008KT 06/05 A3025 RMK A01 T00560049  RH  096%=      5-min Rain = 0
KAHS 091258Z 26009KT 06/05 A3025 RMK A01 T00560049  RH  096%=      5-min Rain = 0
KAHS 091259Z 26008KT 06/05 A3025 RMK A01 T00560049  RH  096%=      5-min Rain = 0
KAHS 091300Z 26010KT 06/05 A3025 RMK A01 T00560049  RH  096%=      5-min Rain = 0
KAHS 091301Z 26009KT 06/05 A3025 RMK A01 T00560049  RH  096%=      5-min Rain = 0
KAHS 091302Z 26010KT 06/05 A3025 RMK A01 T00560050  RH  096%=      5-min Rain = 0
KAHS 091303Z 26010KT 06/05 A3025 RMK A01 T00560050  RH  096%=      5-min Rain = 0
KAHS 091304Z 26010KT 06/05 A3025 RMK A01 T00560050  RH  096%=      5-min Rain = 0
KAHS 091305Z 26010KT 06/05 A3025 RMK A01 T00570051  RH  096%=      5-min Rain = 0
KAHS 091306Z 26009KT 06/05 A3025 RMK A01 T00570051  RH  096%=      5-min Rain = 0
KAHS 091307Z 26010KT 06/05 A3025 RMK A01 T00580051  RH  096%=      5-min Rain = 0
KAHS 091308Z 26010KT 06/05 A3025 RMK A01 T00570051  RH  096%=      5-min Rain = 0
KAHS 091309Z 26009KT 06/05 A3025 RMK A01 T00580051  RH  095%=      5-min Rain = 0
KAHS 091310Z 26009KT 06/05 A3025 RMK A01 T00570050  RH  095%=      5-min Rain = 0
KAHS 091311Z 26009KT 06/05 A3025 RMK A01 T00570050  RH  095%=      5-min Rain = 0
KAHS 091312Z 26009KT 06/05 A3025 RMK A01 T00560049  RH  095%=      5-min Rain = 0
KAHS 091313Z 26009KT 06/05 A3025 RMK A01 T00560049  RH  095%=      5-min Rain = 0
KAHS 091314Z 27009KT 06/05 A3025 RMK A01 T00560049  RH  095%=      5-min Rain = 0
KAHS 091315Z 27009KT 06/05 A3025 RMK A01 T00560049  RH  095%=      5-min Rain = 0
KAHS 091316Z 27009KT 06/05 A3025 RMK A01 T00560049  RH  095%=      5-min Rain = 0
KAHS 091317Z 26009KT 06/05 A3025 RMK A01 T00560049  RH  095%=      5-min Rain = 0
KAHS 091318Z 26009KT 06/05 A3025 RMK A01 T00560049  RH  095%=      5-min Rain = 0
KAHS 091319Z 26009KT 06/05 A3024 RMK A01 T00560049  RH  095%=      5-min Rain = 0
KAHS 091320Z 26009KT 06/05 A3024 RMK A01 T00560049  RH  095%=      5-min Rain = 0
KAHS 091321Z 26009KT 06/05 A3024 RMK A01 T00560049  RH  095%=      5-min Rain = 0
KAHS 091322Z 26009KT 06/05 A3025 RMK A01 T00560049  RH  096%=      5-min Rain = 0
KAHS 091323Z 26009KT 06/05 A3025 RMK A01 T00560049  RH  096%=      5-min Rain = 0
KAHS 091324Z 27009KT 06/05 A3025 RMK A01 T00560049  RH  096%=      5-min Rain = 0
KAHS 091325Z 27009KT 06/05 A3025 RMK A01 T00560049  RH  096%=      5-min Rain = 0
KAHS 091326Z 27009KT 06/05 A3025 RMK A01 T00560050  RH  096%=      5-min Rain = 0
KAHS 091327Z 27008KT 06/05 A3025 RMK A01 T00560050  RH  096%=      5-min Rain = 0
KAHS 091328Z 27008KT 06/05 A3025 RMK A01 T00560050  RH  095%=      5-min Rain = 0
KAHS 091329Z 27008KT 06/05 A3025 RMK A01 T00560049  RH  095%=      5-min Rain = 0
KAHS 091330Z 27008KT 06/05 A3025 RMK A01 T00560049  RH  095%=      5-min Rain = 0
KAHS 091331Z 26008KT 06/05 A3025 RMK A01 T00570050  RH  095%=      5-min Rain = 0
KAHS 091332Z 27008KT 06/05 A3025 RMK A01 T00570050  RH  095%=      5-min Rain = 0
KAHS 091333Z 26008KT 06/05 A3025 RMK A01 T00570050  RH  095%=      5-min Rain = 0
KAHS 091334Z 26009KT 06/05 A3025 RMK A01 T00570050  RH  095%=      5-min Rain = 0
KAHS 091335Z 26009KT 06/05 A3025 RMK A01 T00580051  RH  095%=      5-min Rain = 0
KAHS 091336Z 26007KT 06/05 A3025 RMK A01 T00580051  RH  095%=      5-min Rain = 0
KAHS 091337Z 26007KT 06/05 A3025 RMK A01 T00580051  RH  095%=      5-min Rain = 0
KAHS 091338Z 27008KT 06/05 A3025 RMK A01 T00590052  RH  095%=      5-min Rain = 0
KAHS 091339Z 26008KT 06/05 A3025 RMK A01 T00590052  RH  095%=      5-min Rain = 0
KAHS 091340Z 27006KT 06/05 A3025 RMK A01 T00590052  RH  095%=      5-min Rain = 0
KAHS 091341Z 27007KT 06/05 A3025 RMK A01 T00600052  RH  095%=      5-min Rain = 0
KAHS 091342Z 26007KT 06/05 A3025 RMK A01 T00600052  RH  095%=      5-min Rain = 0
KAHS 091343Z 27006KT 06/05 A3025 RMK A01 T00600052  RH  095%=      5-min Rain = 0
KAHS 091344Z 27007KT 06/05 A3025 RMK A01 T00600052  RH  095%=      5-min Rain = 0
KAHS 091345Z 26008KT 06/05 A3025 RMK A01 T00600052  RH  095%=      5-min Rain = 0
KAHS 091346Z 26007KT 06/05 A3025 RMK A01 T00600052  RH  095%=      5-min Rain = 0
KAHS 091347Z 26007KT 06/05 A3026 RMK A01 T00600052  RH  095%=      5-min Rain = 0
KAHS 091348Z 26008KT 06/05 A3026 RMK A01 T00610053  RH  095%=      5-min Rain = 0
KAHS 091349Z 26008KT 06/05 A3026 RMK A01 T00610053  RH  095%=      5-min Rain = 0
KAHS 091350Z 27007KT 06/05 A3026 RMK A01 T00610053  RH  095%=      5-min Rain = 0
KAHS 091351Z 26007KT 06/05 A3026 RMK A01 T00610053  RH  094%=      5-min Rain = 0
KAHS 091352Z 27007KT 06/05 A3026 RMK A01 T00620054  RH  094%=      5-min Rain = 0
KAHS 091353Z 27007KT 06/05 A3026 RMK A01 T00620054  RH  094%=      5-min Rain = 0
KAHS 091354Z 27008KT 06/05 A3026 RMK A01 T00630054  RH  094%=      5-min Rain = 0
KAHS 091355Z 27008KT 06/06 A3026 RMK A01 T00630055  RH  094%=      5-min Rain = 0
KAHS 091356Z 27007KT 06/06 A3026 RMK A01 T00630055  RH  094%=      5-min Rain = 0
KAHS 091357Z 27007KT 06/06 A3026 RMK A01 T00640055  RH  094%=      5-min Rain = 0
KAHS 091358Z 27008KT 06/06 A3026 RMK A01 T00640056  RH  094%=      5-min Rain = 0
KAHS 091359Z 27008KT 07/06 A3026 RMK A01 T00650056  RH  094%=      5-min Rain = 0
KAHS 091400Z 27008KT 07/06 A3026 RMK A01 T00650056  RH  094%=      5-min Rain = 0
KAHS 091401Z 27006KT 07/06 A3026 RMK A01 T00660056  RH  094%=      5-min Rain = 0
KAHS 091402Z 27008KT 07/06 A3026 RMK A01 T00660057  RH  094%=      5-min Rain = 0
KAHS 091403Z 27007KT 07/06 A3026 RMK A01 T00670057  RH  094%=      5-min Rain = 0
KAHS 091404Z 27008KT 07/06 A3026 RMK A01 T00670057  RH  094%=      5-min Rain = 0
KAHS 091405Z 27007KT 07/06 A3026 RMK A01 T00670057  RH  093%=      5-min Rain = 0
KAHS 091406Z 27008KT 07/06 A3026 RMK A01 T00670057  RH  093%=      5-min Rain = 0
KAHS 091407Z 27008KT 07/06 A3026 RMK A01 T00680057  RH  093%=      5-min Rain = 0
KAHS 091408Z 28008KT 07/06 A3026 RMK A01 T00680058  RH  093%=      5-min Rain = 0
KAHS 091409Z 28008KT 07/06 A3026 RMK A01 T00690059  RH  093%=      5-min Rain = 0
KAHS 091410Z 27008KT 07/06 A3026 RMK A01 T00690059  RH  093%=      5-min Rain = 0
KAHS 091411Z 27007KT 07/06 A3026 RMK A01 T00690059  RH  093%=      5-min Rain = 0
KAHS 091412Z 27007KT 07/06 A3026 RMK A01 T00700059  RH  093%=      5-min Rain = 0
KAHS 091413Z 27008KT 07/06 A3026 RMK A01 T00700060  RH  093%=      5-min Rain = 0
KAHS 091414Z 26007KT 07/06 A3026 RMK A01 T00700059  RH  093%=      5-min Rain = 0
KAHS 091415Z 27007KT 07/06 A3026 RMK A01 T00700060  RH  093%=      5-min Rain = 0
KAHS 091416Z 26007KT 07/06 A3026 RMK A01 T00710060  RH  093%=      5-min Rain = 0
KAHS 091417Z 26006KT 07/06 A3026 RMK A01 T00710061  RH  093%=      5-min Rain = 0
KAHS 091418Z 26008KT 07/06 A3026 RMK A01 T00720061  RH  093%=      5-min Rain = 0
KAHS 091419Z 27007KT 07/06 A3026 RMK A01 T00720062  RH  093%=      5-min Rain = 0
KAHS 091420Z 27007KT 07/06 A3026 RMK A01 T00730062  RH  093%=      5-min Rain = 0
KAHS 091421Z 27007KT 07/06 A3026 RMK A01 T00730062  RH  093%=      5-min Rain = 0
KAHS 091422Z 27007KT 07/06 A3026 RMK A01 T00740063  RH  093%=      5-min Rain = 0
KAHS 091423Z 27007KT 08/06 A3026 RMK A01 T00750064  RH  093%=      5-min Rain = 0
KAHS 091424Z 26006KT 08/06 A3026 RMK A01 T00750064  RH  093%=      5-min Rain = 0
KAHS 091425Z 27007KT 08/06 A3026 RMK A01 T00750064  RH  093%=      5-min Rain = 0
KAHS 091426Z 26008KT 08/07 A3026 RMK A01 T00760065  RH  093%=      5-min Rain = 0
KAHS 091427Z 27007KT 08/07 A3026 RMK A01 T00760065  RH  092%=      5-min Rain = 0
KAHS 091428Z 27007KT 08/07 A3026 RMK A01 T00770065  RH  092%=      5-min Rain = 0
KAHS 091429Z 27007KT 08/07 A3026 RMK A01 T00780066  RH  092%=      5-min Rain = 0
KAHS 091430Z 27007KT 08/07 A3026 RMK A01 T00790067  RH  092%=      5-min Rain = 0
KAHS 091431Z 27007KT 08/07 A3026 RMK A01 T00800067  RH  092%=      5-min Rain = 0
KAHS 091432Z 27007KT 08/07 A3026 RMK A01 T00800067  RH  092%=      5-min Rain = 0
KAHS 091433Z 26007KT 08/07 A3026 RMK A01 T00810068  RH  092%=      5-min Rain = 0
KAHS 091434Z 26007KT 08/07 A3026 RMK A01 T00810068  RH  091%=      5-min Rain = 0
KAHS 091435Z 26009KT 08/07 A3026 RMK A01 T00820068  RH  091%=      5-min Rain = 0
KAHS 091436Z 26007KT 08/07 A3026 RMK A01 T00820068  RH  091%=      5-min Rain = 0
KAHS 091437Z 26007KT 08/07 A3026 RMK A01 T00830069  RH  091%=      5-min Rain = 0
KAHS 091438Z 26009KT 08/07 A3026 RMK A01 T00840069  RH  091%=      5-min Rain = 0
KAHS 091439Z 26009KT 08/07 A3026 RMK A01 T00830068  RH  090%=      5-min Rain = 0
KAHS 091440Z 25007KT 08/07 A3026 RMK A01 T00840069  RH  090%=      5-min Rain = 0
KAHS 091441Z 26008KT 08/07 A3026 RMK A01 T00840069  RH  090%=      5-min Rain = 0
KAHS 091442Z 26009KT 09/07 A3026 RMK A01 T00850069  RH  090%=      5-min Rain = 0
KAHS 091443Z 26008KT 09/07 A3026 RMK A01 T00850070  RH  090%=      5-min Rain = 0
KAHS 091444Z 26007KT 09/07 A3026 RMK A01 T00860070  RH  090%=      5-min Rain = 0
KAHS 091445Z 26007KT 09/07 A3026 RMK A01 T00870071  RH  090%=      5-min Rain = 0
KAHS 091446Z 26008KT 09/07 A3026 RMK A01 T00870071  RH  090%=      5-min Rain = 0
KAHS 091447Z 26008KT 09/07 A3026 RMK A01 T00870071  RH  089%=      5-min Rain = 0
KAHS 091448Z 26009KT 09/07 A3026 RMK A01 T00860069  RH  089%=      5-min Rain = 0
KAHS 091449Z 26008KT 09/07 A3026 RMK A01 T00870069  RH  089%=      5-min Rain = 0
KAHS 091450Z 26009KT 09/07 A3026 RMK A01 T00870070  RH  089%=      5-min Rain = 0
KAHS 091451Z 26009KT 09/07 A3026 RMK A01 T00870070  RH  089%=      5-min Rain = 0
KAHS 091452Z 26008KT 09/07 A3026 RMK A01 T00880070  RH  089%=      5-min Rain = 0
KAHS 091453Z 26007KT 09/07 A3026 RMK A01 T00880071  RH  089%=      5-min Rain = 0
KAHS 091454Z 26006KT 09/07 A3027 RMK A01 T00890072  RH  089%=      5-min Rain = 0
KAHS 091455Z 26008KT 09/07 A3027 RMK A01 T00900072  RH  089%=      5-min Rain = 0
KAHS 091456Z 27006KT 09/07 A3027 RMK A01 T00900072  RH  089%=      5-min Rain = 0
KAHS 091457Z 26005KT 09/07 A3027 RMK A01 T00910074  RH  089%=      5-min Rain = 0
KAHS 091458Z 27006KT 09/08 A3027 RMK A01 T00920075  RH  089%=      5-min Rain = 0
KAHS 091459Z 27006KT 09/08 A3027 RMK A01 T00930075  RH  089%=      5-min Rain = 0
KAHS 091500Z 26005KT 09/08 A3027 RMK A01 T00930075  RH  088%=      5-min Rain = 0
KAHS 091501Z 27006KT 10/08 A3027 RMK A01 T00950077  RH  089%=      5-min Rain = 0
KAHS 091502Z 28006KT 10/08 A3027 RMK A01 T00960077  RH  088%=      5-min Rain = 0
KAHS 091503Z 28006KT 10/08 A3027 RMK A01 T00960077  RH  088%=      5-min Rain = 0
KAHS 091504Z 27006KT 10/08 A3027 RMK A01 T00960076  RH  087%=      5-min Rain = 0
KAHS 091505Z 27007KT 10/07 A3027 RMK A01 T00960074  RH  087%=      5-min Rain = 0
KAHS 091506Z 27007KT 10/08 A3027 RMK A01 T00960075  RH  087%=      5-min Rain = 0
KAHS 091507Z 26007KT 10/07 A3027 RMK A01 T00960074  RH  086%=      5-min Rain = 0
KAHS 091508Z 26007KT 10/08 A3027 RMK A01 T00960075  RH  086%=      5-min Rain = 0
KAHS 091509Z 26007KT 10/07 A3027 RMK A01 T00960073  RH  086%=      5-min Rain = 0
KAHS 091510Z 25008KT 10/08 A3027 RMK A01 T00960075  RH  086%=      5-min Rain = 0
KAHS 091511Z 26006KT 10/08 A3027 RMK A01 T00970075  RH  087%=      5-min Rain = 0
KAHS 091512Z 26005KT 10/08 A3027 RMK A01 T00980077  RH  087%=      5-min Rain = 0
KAHS 091513Z 26007KT 10/08 A3027 RMK A01 T00990078  RH  086%=      5-min Rain = 0
KAHS 091514Z 26008KT 10/08 A3027 RMK A01 T00990076  RH  086%=      5-min Rain = 0
KAHS 091515Z 27006KT 10/08 A3027 RMK A01 T01000077  RH  086%=      5-min Rain = 0
KAHS 091516Z 27007KT 10/08 A3027 RMK A01 T01020079  RH  086%=      5-min Rain = 0
KAHS 091517Z 27008KT 10/08 A3027 RMK A01 T01020078  RH  085%=      5-min Rain = 0
KAHS 091518Z 27006KT 10/08 A3027 RMK A01 T01010076  RH  084%=      5-min Rain = 0
KAHS 091519Z 27006KT 10/08 A3027 RMK A01 T01010077  RH  085%=      5-min Rain = 0
KAHS 091520Z 27006KT 10/08 A3027 RMK A01 T01030079  RH  085%=      5-min Rain = 0
KAHS 091521Z 27007KT 10/08 A3027 RMK A01 T01030077  RH  084%=      5-min Rain = 0
KAHS 091522Z 26007KT 10/08 A3027 RMK A01 T01030077  RH  084%=      5-min Rain = 0
KAHS 091523Z 26007KT 10/08 A3027 RMK A01 T01030077  RH  084%=      5-min Rain = 0
KAHS 091524Z 26008KT 10/08 A3027 RMK A01 T01030076  RH  084%=      5-min Rain = 0
KAHS 091525Z 26008KT 10/08 A3027 RMK A01 T01040077  RH  084%=      5-min Rain = 0
KAHS 091526Z 26007KT 10/08 A3027 RMK A01 T01030076  RH  083%=      5-min Rain = 0
KAHS 091527Z 26006KT 11/08 A3027 RMK A01 T01050078  RH  084%=      5-min Rain = 0
KAHS 091528Z 27007KT 11/08 A3027 RMK A01 T01050077  RH  083%=      5-min Rain = 0
KAHS 091529Z 27006KT 11/08 A3027 RMK A01 T01050077  RH  083%=      5-min Rain = 0
KAHS 091530Z 28006KT 11/08 A3027 RMK A01 T01050077  RH  083%=      5-min Rain = 0
KAHS 091531Z 28007KT 11/08 A3027 RMK A01 T01070079  RH  083%=      5-min Rain = 0
KAHS 091532Z 27005KT 11/08 A3027 RMK A01 T01070078  RH  082%=      5-min Rain = 0
KAHS 091533Z 28005KT 11/08 A3027 RMK A01 T01090080  RH  083%=      5-min Rain = 0
KAHS 091534Z 28006KT 11/08 A3027 RMK A01 T01100081  RH  082%=      5-min Rain = 0
KAHS 091535Z 27007KT 11/08 A3027 RMK A01 T01100080  RH  082%=      5-min Rain = 0
KAHS 091536Z 28007KT 11/08 A3027 RMK A01 T01100079  RH  081%=      5-min Rain = 0
KAHS 091537Z 29006KT 11/08 A3027 RMK A01 T01100077  RH  081%=      5-min Rain = 0
KAHS 091538Z 28006KT 11/08 A3027 RMK A01 T01100079  RH  081%=      5-min Rain = 0
KAHS 091539Z 28007KT 11/08 A3027 RMK A01 T01100078  RH  081%=      5-min Rain = 0
KAHS 091540Z 27006KT 11/08 A3027 RMK A01 T01110079  RH  081%=      5-min Rain = 0
KAHS 091541Z 26006KT 11/08 A3027 RMK A01 T01120080  RH  081%=      5-min Rain = 0
KAHS 091542Z 26006KT 11/08 A3027 RMK A01 T01120079  RH  080%=      5-min Rain = 0
KAHS 091543Z 27008KT 11/08 A3027 RMK A01 T01140081  RH  080%=      5-min Rain = 0
KAHS 091544Z 28008KT 11/08 A3027 RMK A01 T01140078  RH  079%=      5-min Rain = 0
KAHS 091545Z 28007KT 11/08 A3027 RMK A01 T01140079  RH  079%=      5-min Rain = 0
KAHS 091546Z 28008KT 11/08 A3027 RMK A01 T01140078  RH  079%=      5-min Rain = 0
KAHS 091547Z 28008KT 12/08 A3027 RMK A01 T01150079  RH  078%=      5-min Rain = 0
KAHS 091548Z 29007KT 12/08 A3027 RMK A01 T01150079  RH  078%=      5-min Rain = 0
KAHS 091549Z 29008KT 12/08 A3027 RMK A01 T01160080  RH  078%=      5-min Rain = 0
KAHS 091550Z 28007KT 12/08 A3027 RMK A01 T01170079  RH  078%=      5-min Rain = 0
KAHS 091551Z 27008KT 12/08 A3027 RMK A01 T01170080  RH  078%=      5-min Rain = 0
KAHS 091552Z 27008KT 12/08 A3027 RMK A01 T01170079  RH  077%=      5-min Rain = 0
KAHS 091553Z 27009KT 12/08 A3027 RMK A01 T01170078  RH  077%=      5-min Rain = 0
KAHS 091554Z 28007KT 12/08 A3027 RMK A01 T01170078  RH  077%=      5-min Rain = 0
KAHS 091555Z 28007KT 12/08 A3027 RMK A01 T01180080  RH  077%=      5-min Rain = 0
KAHS 091556Z 28007KT 12/08 A3027 RMK A01 T01190080  RH  077%=      5-min Rain = 0
KAHS 091557Z 29008KT 12/08 A3027 RMK A01 T01190080  RH  077%=      5-min Rain = 0
KAHS 091558Z 29007KT 12/08 A3027 RMK A01 T01200081  RH  077%=      5-min Rain = 0
KAHS 091559Z 29006KT 12/08 A3027 RMK A01 T01200080  RH  076%=      5-min Rain = 0
KAHS 091600Z 28006KT 12/08 A3027 RMK A01 T01210082  RH  077%=      5-min Rain = 0
KAHS 091601Z 26007KT 12/08 A3027 RMK A01 T01220081  RH  076%=      5-min Rain = 0
KAHS 091602Z 26007KT 12/08 A3027 RMK A01 T01220081  RH  076%=      5-min Rain = 0
KAHS 091603Z 27006KT 12/08 A3027 RMK A01 T01220080  RH  076%=      5-min Rain = 0
KAHS 091604Z 29007KT 12/08 A3027 RMK A01 T01230083  RH  076%=      5-min Rain = 0
KAHS 091605Z 28005KT 13/08 A3027 RMK A01 T01250083  RH  076%=      5-min Rain = 0
KAHS 091606Z 27005KT 13/09 A3027 RMK A01 T01270086  RH  076%=      5-min Rain = 0
KAHS 091607Z 28006KT 13/08 A3027 RMK A01 T01280084  RH  075%=      5-min Rain = 0
KAHS 091608Z 27006KT 13/09 A3027 RMK A01 T01300086  RH  075%=      5-min Rain = 0
KAHS 091609Z 27006KT 13/08 A3027 RMK A01 T01290083  RH  074%=      5-min Rain = 0
KAHS 091610Z 27006KT 13/08 A3027 RMK A01 T01280083  RH  074%=      5-min Rain = 0
KAHS 091611Z 25006KT 13/08 A3027 RMK A01 T01280083  RH  074%=      5-min Rain = 0
KAHS 091612Z 25007KT 13/08 A3027 RMK A01 T01280083  RH  074%=      5-min Rain = 0
KAHS 091613Z 25006KT 13/08 A3027 RMK A01 T01280084  RH  074%=      5-min Rain = 0
KAHS 091614Z 25008KT 13/09 A3027 RMK A01 T01310086  RH  074%=      5-min Rain = 0
KAHS 091615Z 27008KT 13/08 A3027 RMK A01 T01290082  RH  073%=      5-min Rain = 0
KAHS 091616Z 26008KT 13/08 A3027 RMK A01 T01290083  RH  074%=      5-min Rain = 0
KAHS 091617Z 27008KT 13/08 A3027 RMK A01 T01290082  RH  073%=      5-min Rain = 0
KAHS 091618Z 27005KT 13/08 A3027 RMK A01 T01300084  RH  074%=      5-min Rain = 0
KAHS 091619Z 27005KT 13/09 A3027 RMK A01 T01330087  RH  074%=      5-min Rain = 0
KAHS 091620Z 26006KT 13/08 A3027 RMK A01 T01330084  RH  072%=      5-min Rain = 0
KAHS 091621Z 25007KT 13/09 A3027 RMK A01 T01320085  RH  073%=      5-min Rain = 0
KAHS 091622Z 25007KT 13/09 A3027 RMK A01 T01330086  RH  073%=      5-min Rain = 0
KAHS 091623Z 25006KT 13/09 A3027 RMK A01 T01340087  RH  073%=      5-min Rain = 0
KAHS 091624Z 26007KT 13/08 A3027 RMK A01 T01340084  RH  072%=      5-min Rain = 0
KAHS 091625Z 27006KT 13/08 A3026 RMK A01 T01330084  RH  072%=      5-min Rain = 0
KAHS 091626Z 28006KT 14/09 A3026 RMK A01 T01350087  RH  073%=      5-min Rain = 0
KAHS 091627Z 27007KT 14/09 A3026 RMK A01 T01370087  RH  072%=      5-min Rain = 0
KAHS 091628Z 27007KT 14/09 A3026 RMK A01 T01360085  RH  071%=      5-min Rain = 0
KAHS 091629Z 25005KT 14/09 A3026 RMK A01 T01360087  RH  072%=      5-min Rain = 0
KAHS 091630Z 24007KT 14/09 A3026 RMK A01 T01380090  RH  072%=      5-min Rain = 0
KAHS 091631Z 24007KT 14/09 A3026 RMK A01 T01390088  RH  071%=      5-min Rain = 0
KAHS 091632Z 24005KT 14/09 A3026 RMK A01 T01380087  RH  071%=      5-min Rain = 0
KAHS 091633Z 25005KT 14/09 A3026 RMK A01 T01390090  RH  072%=      5-min Rain = 0
KAHS 091634Z 25007KT 14/09 A3026 RMK A01 T01410089  RH  071%=      5-min Rain = 0
KAHS 091635Z 25006KT 14/09 A3026 RMK A01 T01410089  RH  071%=      5-min Rain = 0
KAHS 091636Z 24005KT 14/09 A3026 RMK A01 T01420089  RH  071%=      5-min Rain = 0
KAHS 091637Z 24005KT 14/09 A3026 RMK A01 T01430090  RH  070%=      5-min Rain = 0
KAHS 091638Z 25007KT 14/09 A3026 RMK A01 T01430089  RH  070%=      5-min Rain = 0
KAHS 091639Z 26007KT 14/09 A3026 RMK A01 T01410086  RH  069%=      5-min Rain = 0
KAHS 091640Z 26007KT 14/09 A3026 RMK A01 T01400088  RH  070%=      5-min Rain = 0
KAHS 091641Z 26008KT 14/09 A3026 RMK A01 T01410088  RH  070%=      5-min Rain = 0
KAHS 091642Z 26007KT 14/09 A3026 RMK A01 T01410088  RH  070%=      5-min Rain = 0
KAHS 091643Z 27005KT 14/09 A3026 RMK A01 T01420089  RH  071%=      5-min Rain = 0
KAHS 091644Z 27006KT 14/09 A3026 RMK A01 T01430089  RH  070%=      5-min Rain = 0
KAHS 091645Z 27006KT 14/09 A3026 RMK A01 T01440091  RH  070%=      5-min Rain = 0
KAHS 091646Z 28005KT 15/09 A3026 RMK A01 T01460090  RH  069%=      5-min Rain = 0
KAHS 091647Z 26005KT 15/09 A3026 RMK A01 T01470092  RH  070%=      5-min Rain = 0
KAHS 091648Z 25007KT 15/09 A3026 RMK A01 T01470089  RH  068%=      5-min Rain = 0
KAHS 091649Z 24005KT 15/09 A3026 RMK A01 T01450088  RH  069%=      5-min Rain = 0
KAHS 091650Z 23005KT 14/09 A3026 RMK A01 T01440089  RH  070%=      5-min Rain = 0
KAHS 091651Z 24005KT 15/09 A3026 RMK A01 T01460093  RH  070%=      5-min Rain = 0
KAHS 091652Z 23008KT 15/09 A3026 RMK A01 T01480092  RH  069%=      5-min Rain = 0
KAHS 091653Z 24007KT 15/09 A3026 RMK A01 T01490093  RH  069%=      5-min Rain = 0
KAHS 091654Z 25006KT 15/09 A3026 RMK A01 T01490091  RH  068%=      5-min Rain = 0
KAHS 091655Z 25004KT 15/09 A3026 RMK A01 T01490093  RH  069%=      5-min Rain = 0
KAHS 091656Z 23007KT 15/09 A3026 RMK A01 T01510093  RH  068%=      5-min Rain = 0
KAHS 091657Z 25006KT 15/09 A3026 RMK A01 T01520093  RH  068%=      5-min Rain = 0
KAHS 091658Z 24008KT 15/09 A3026 RMK A01 T01520092  RH  067%=      5-min Rain = 0
KAHS 091659Z 25009KT 15/09 A3025 RMK A01 T01490091  RH  068%=      5-min Rain = 0
KAHS 091700Z 25007KT 15/09 A3025 RMK A01 T01480091  RH  068%=      5-min Rain = 0
KAHS 091701Z 26008KT 15/09 A3025 RMK A01 T01490091  RH  068%=      5-min Rain = 0
KAHS 091702Z 26007KT 15/09 A3025 RMK A01 T01500093  RH  069%=      5-min Rain = 0
KAHS 091703Z 26008KT 15/09 A3025 RMK A01 T01510093  RH  068%=      5-min Rain = 0
KAHS 091704Z 26008KT 15/10 A3025 RMK A01 T01530095  RH  068%=      5-min Rain = 0
KAHS 091705Z 27007KT 15/09 A3025 RMK A01 T01530093  RH  068%=      5-min Rain = 0
KAHS 091706Z 26008KT 15/10 A3025 RMK A01 T01540095  RH  068%=      5-min Rain = 0
KAHS 091707Z 25007KT 16/10 A3025 RMK A01 T01550095  RH  067%=      5-min Rain = 0
KAHS 091708Z 26010KT 15/09 A3025 RMK A01 T01540092  RH  067%=      5-min Rain = 0
KAHS 091709Z 27008KT 15/09 A3025 RMK A01 T01520093  RH  067%=      5-min Rain = 0
KAHS 091710Z 25007KT 15/09 A3025 RMK A01 T01530093  RH  068%=      5-min Rain = 0
KAHS 091711Z 25006KT 15/10 A3025 RMK A01 T01540095  RH  068%=      5-min Rain = 0
KAHS 091712Z 25008KT 16/10 A3025 RMK A01 T01550095  RH  068%=      5-min Rain = 0
KAHS 091713Z 25007KT 16/10 A3025 RMK A01 T01560095  RH  067%=      5-min Rain = 0
KAHS 091714Z 27007KT 16/10 A3025 RMK A01 T01570096  RH  067%=      5-min Rain = 0
KAHS 091715Z 26007KT 16/09 A3025 RMK A01 T01560094  RH  066%=      5-min Rain = 0
KAHS 091716Z 27006KT 16/10 A3025 RMK A01 T01580097  RH  067%=      5-min Rain = 0
KAHS 091717Z 26008KT 16/10 A3025 RMK A01 T01600097  RH  066%=      5-min Rain = 0
KAHS 091718Z 25009KT 16/10 A3025 RMK A01 T01590095  RH  066%=      5-min Rain = 0
KAHS 091719Z 24009KT 16/10 A3025 RMK A01 T01580095  RH  066%=      5-min Rain = 0
KAHS 091720Z 24009KT 16/10 A3025 RMK A01 T01590097  RH  067%=      5-min Rain = 0
KAHS 091721Z 25008KT 16/10 A3025 RMK A01 T01590096  RH  066%=      5-min Rain = 0
KAHS 091722Z 25008KT 16/10 A3025 RMK A01 T01600097  RH  066%=      5-min Rain = 0
KAHS 091723Z 25009KT 16/10 A3025 RMK A01 T01610098  RH  066%=      5-min Rain = 0
KAHS 091724Z 24010KT 16/10 A3024 RMK A01 T01620099  RH  066%=      5-min Rain = 0
KAHS 091725Z 24011KT 16/10 A3024 RMK A01 T01630098  RH  066%=      5-min Rain = 0
KAHS 091726Z 25007KT 16/10 A3024 RMK A01 T01620098  RH  066%=      5-min Rain = 0
KAHS 091727Z 27007KT 17/10 A3024 RMK A01 T01650102  RH  066%=      5-min Rain = 0
KAHS 091728Z 25007KT 17/10 A3024 RMK A01 T01670100  RH  065%=      5-min Rain = 0
KAHS 091729Z 25008KT 17/10 A3024 RMK A01 T01690102  RH  065%=      5-min Rain = 0
KAHS 091730Z 27008KT 17/10 A3024 RMK A01 T01710102  RH  064%=      5-min Rain = 0
KAHS 091731Z 26011KT 17/10 A3024 RMK A01 T01690099  RH  063%=      5-min Rain = 0
KAHS 091732Z 26010KT 17/10 A3024 RMK A01 T01670099  RH  064%=      5-min Rain = 0
KAHS 091733Z 25011KT 17/10 A3024 RMK A01 T01660098  RH  064%=      5-min Rain = 0
KAHS 091734Z 26009KT 17/10 A3024 RMK A01 T01650100  RH  065%=      5-min Rain = 0
KAHS 091735Z 25008KT 17/10 A3024 RMK A01 T01670100  RH  065%=      5-min Rain = 0
KAHS 091736Z 25010KT 17/10 A3024 RMK A01 T01680100  RH  064%=      5-min Rain = 0
KAHS 091737Z 26009KT 17/10 A3024 RMK A01 T01680101  RH  064%=      5-min Rain = 0
KAHS 091738Z 26010KT 17/10 A3024 RMK A01 T01700101  RH  064%=      5-min Rain = 0
KAHS 091739Z 26008KT 17/10 A3024 RMK A01 T01690100  RH  064%=      5-min Rain = 0
KAHS 091740Z 27010KT 17/10 A3024 RMK A01 T01690100  RH  064%=      5-min Rain = 0
KAHS 091741Z 26009KT 17/10 A3024 RMK A01 T01690099  RH  064%=      5-min Rain = 0
KAHS 091742Z 24010KT 17/10 A3024 RMK A01 T01690100  RH  064%=      5-min Rain = 0
KAHS 091743Z 24010KT 17/10 A3023 RMK A01 T01690100  RH  064%=      5-min Rain = 0
KAHS 091744Z 26010KT 17/10 A3023 RMK A01 T01700101  RH  064%=      5-min Rain = 0
KAHS 091745Z 26010KT 17/10 A3023 RMK A01 T01700101  RH  064%=      5-min Rain = 0
KAHS 091746Z 25009KT 17/10 A3023 RMK A01 T01700102  RH  064%=      5-min Rain = 0
KAHS 091747Z 26009KT 17/10 A3023 RMK A01 T01710102  RH  063%=      5-min Rain = 0
KAHS 091748Z 26011KT 17/10 A3023 RMK A01 T01710100  RH  063%=      5-min Rain = 0
KAHS 091749Z 27008KT 17/10 A3023 RMK A01 T01700100  RH  063%=      5-min Rain = 0
KAHS 091750Z 25008KT 17/10 A3023 RMK A01 T01720102  RH  064%=      5-min Rain = 0
KAHS 091751Z 26007KT 17/10 A3023 RMK A01 T01730103  RH  063%=      5-min Rain = 0
KAHS 091752Z 24009KT 18/10 A3023 RMK A01 T01750103  RH  063%=      5-min Rain = 0
KAHS 091753Z 26009KT 18/10 A3023 RMK A01 T01750102  RH  063%=      5-min Rain = 0
KAHS 091754Z 27011KT 18/10 A3023 RMK A01 T01750102  RH  062%=      5-min Rain = 0
KAHS 091755Z 25010KT 17/10 A3023 RMK A01 T01740101  RH  063%=      5-min Rain = 0
KAHS 091756Z 26011KT 17/10 A3022 RMK A01 T01730101  RH  062%=      5-min Rain = 0
KAHS 091757Z 26010KT 17/10 A3022 RMK A01 T01730101  RH  063%=      5-min Rain = 0
KAHS 091758Z 26011KT 17/10 A3022 RMK A01 T01730102  RH  063%=      5-min Rain = 0
KAHS 091759Z 27010KT 17/10 A3022 RMK A01 T01730102  RH  063%=      5-min Rain = 0
KAHS 091800Z 26010KT 18/10 A3022 RMK A01 T01750102  RH  063%=      5-min Rain = 0
KAHS 091801Z 28009KT 18/10 A3022 RMK A01 T01760104  RH  063%=      5-min Rain = 0
KAHS 091802Z 26008KT 18/10 A3022 RMK A01 T01770103  RH  062%=      5-min Rain = 0
KAHS 091803Z 27008KT 18/10 A3022 RMK A01 T01770103  RH  062%=      5-min Rain = 0
KAHS 091804Z 26007KT 18/10 A3022 RMK A01 T01780102  RH  061%=      5-min Rain = 0
KAHS 091805Z 25009KT 18/11 A3022 RMK A01 T01800105  RH  062%=      5-min Rain = 0
KAHS 091806Z 24008KT 18/11 A3022 RMK A01 T01820105  RH  061%=      5-min Rain = 0
KAHS 091807Z 25008KT 18/10 A3022 RMK A01 T01800103  RH  061%=      5-min Rain = 0
KAHS 091808Z 25008KT 18/11 A3022 RMK A01 T01810106  RH  062%=      5-min Rain = 0
KAHS 091809Z 23007KT 18/11 A3022 RMK A01 T01830107  RH  061%=      5-min Rain = 0
KAHS 091810Z 24007KT 18/11 A3022 RMK A01 T01840105  RH  060%=      5-min Rain = 0
KAHS 091811Z 25005KT 19/11 A3022 RMK A01 T01850107  RH  060%=      5-min Rain = 0
KAHS 091812Z 25009G14KT 19/11 A3021 RMK A01 T01870108  RH  060%=      5-min Rain = 0
KAHS 091813Z 24010KT 19/11 A3021 RMK A01 T01850105  RH  059%=      5-min Rain = 0
KAHS 091814Z 25009KT 18/10 A3021 RMK A01 T01820102  RH  060%=      5-min Rain = 0
KAHS 091815Z 26010KT 18/10 A3021 RMK A01 T01810103  RH  060%=      5-min Rain = 0
KAHS 091816Z 26010KT 18/10 A3021 RMK A01 T01820103  RH  060%=      5-min Rain = 0
KAHS 091817Z 26009KT 18/10 A3021 RMK A01 T01820103  RH  060%=      5-min Rain = 0
KAHS 091818Z 25008G15KT 18/10 A3021 RMK A01 T01810102  RH  060%=      5-min Rain = 0
KAHS 091819Z 26009G14KT 18/10 A3021 RMK A01 T01810104  RH  061%=      5-min Rain = 0
KAHS 091820Z 27010KT 18/11 A3021 RMK A01 T01810105  RH  061%=      5-min Rain = 0
KAHS 091821Z 25007KT 18/11 A3021 RMK A01 T01830106  RH  061%=      5-min Rain = 0
KAHS 091822Z 26008KT 19/11 A3021 RMK A01 T01860108  RH  060%=      5-min Rain = 0
KAHS 091823Z 24009KT 19/11 A3021 RMK A01 T01850106  RH  060%=      5-min Rain = 0
KAHS 091824Z 24009KT 19/11 A3021 RMK A01 T01860106  RH  060%=      5-min Rain = 0
KAHS 091825Z 23007KT 18/11 A3021 RMK A01 T01840105  RH  060%=      5-min Rain = 0
KAHS 091826Z 23008KT 19/11 A3021 RMK A01 T01860107  RH  060%=      5-min Rain = 0
KAHS 091827Z 23009KT 19/11 A302 RMK A01 T01870107  RH  060%=      5-min Rain = 0
KAHS 091828Z 24007KT 19/10 A302 RMK A01 T01850104  RH  059%=      5-min Rain = 0
KAHS 091829Z 25006KT 18/10 A302 RMK A01 T01840104  RH  060%=      5-min Rain = 0
KAHS 091830Z 26007KT 19/11 A302 RMK A01 T01850107  RH  060%=      5-min Rain = 0
KAHS 091831Z 26009KT 19/11 A302 RMK A01 T01870107  RH  060%=      5-min Rain = 0
KAHS 091832Z 27010KT 19/11 A302 RMK A01 T01880107  RH  059%=      5-min Rain = 0
KAHS 091833Z 26009KT 19/11 A302 RMK A01 T01890106  RH  059%=      5-min Rain = 0
KAHS 091834Z 27008KT 19/11 A302 RMK A01 T01880106  RH  059%=      5-min Rain = 0
KAHS 091835Z 27009KT 19/11 A302 RMK A01 T01880107  RH  059%=      5-min Rain = 0
KAHS 091836Z 26008KT 19/11 A302 RMK A01 T01900111  RH  060%=      5-min Rain = 0
KAHS 091837Z 25007KT 19/11 A302 RMK A01 T01910109  RH  059%=      5-min Rain = 0
KAHS 091838Z 24009KT 19/11 A302 RMK A01 T01910106  RH  058%=      5-min Rain = 0
KAHS 091839Z 26007KT 19/11 A302 RMK A01 T01900108  RH  059%=      5-min Rain = 0
KAHS 091840Z 25010KT 19/11 A302 RMK A01 T01910107  RH  058%=      5-min Rain = 0
KAHS 091841Z 26008KT 19/11 A302 RMK A01 T01910107  RH  058%=      5-min Rain = 0
KAHS 091842Z 26007KT 19/11 A302 RMK A01 T01920107  RH  058%=      5-min Rain = 0
KAHS 091843Z 25007KT 19/11 A302 RMK A01 T01940109  RH  058%=      5-min Rain = 0
KAHS 091844Z 27007KT 20/11 A302 RMK A01 T01950107  RH  057%=      5-min Rain = 0
KAHS 091845Z 26006KT 19/11 A302 RMK A01 T01940106  RH  057%=      5-min Rain = 0
KAHS 091846Z 26009KT 20/11 A3019 RMK A01 T01960109  RH  057%=      5-min Rain = 0
KAHS 091847Z 27011KT 20/11 A3019 RMK A01 T01960106  RH  056%=      5-min Rain = 0
KAHS 091848Z 27010KT 20/11 A3019 RMK A01 T01950106  RH  056%=      5-min Rain = 0
KAHS 091849Z 27008KT 20/11 A3019 RMK A01 T01950108  RH  057%=      5-min Rain = 0
KAHS 091850Z 27008KT 20/11 A3019 RMK A01 T01960109  RH  057%=      5-min Rain = 0
KAHS 091851Z 27008KT 20/11 A3019 RMK A01 T01960105  RH  055%=      5-min Rain = 0
KAHS 091852Z 26006KT 20/11 A3019 RMK A01 T01960107  RH  056%=      5-min Rain = 0
KAHS 091853Z 25009KT 20/11 A3019 RMK A01 T01970108  RH  056%=      5-min Rain = 0
KAHS 091854Z 25008KT 20/11 A3019 RMK A01 T01980105  RH  055%=      5-min Rain = 0
KAHS 091855Z 24005KT 20/10 A3019 RMK A01 T01970104  RH  055%=      5-min Rain = 0
KAHS 091856Z 23005KT 20/11 A3019 RMK A01 T01980107  RH  056%=      5-min Rain = 0
KAHS 091857Z 22005KT 20/11 A3019 RMK A01 T01980105  RH  055%=      5-min Rain = 0
KAHS 091858Z 24003KT 20/11 A3019 RMK A01 T02000111  RH  056%=      5-min Rain = 0
KAHS 091859Z 24006KT 20/11 A3018 RMK A01 T02030111  RH  055%=      5-min Rain = 0
KAHS 091900Z 21008KT 20/11 A3018 RMK A01 T02030107  RH  054%=      5-min Rain = 0
KAHS 091901Z 21006KT 20/11 A3018 RMK A01 T02010107  RH  055%=      5-min Rain = 0
KAHS 091902Z 26007KT 20/11 A3018 RMK A01 T02030110  RH  055%=      5-min Rain = 0
KAHS 091903Z 26007KT 20/11 A3018 RMK A01 T02030105  RH  053%=      5-min Rain = 0
KAHS 091904Z 24008KT 20/11 A3018 RMK A01 T02020107  RH  054%=      5-min Rain = 0
KAHS 091905Z 23008KT 20/11 A3018 RMK A01 T02020106  RH  054%=      5-min Rain = 0
KAHS 091906Z 21004KT 20/10 A3018 RMK A01 T02000104  RH  054%=      5-min Rain = 0
KAHS 091907Z 23005KT 20/11 A3018 RMK A01 T02010107  RH  055%=      5-min Rain = 0
KAHS 091908Z 25007KT 20/11 A3018 RMK A01 T02030108  RH  054%=      5-min Rain = 0
KAHS 091909Z 24005KT 20/11 A3018 RMK A01 T02040107  RH  053%=      5-min Rain = 0
KAHS 091910Z 22008KT 21/11 A3018 RMK A01 T02050105  RH  052%=      5-min Rain = 0
KAHS 091911Z 22006KT 21/10 A3018 RMK A01 T02060101  RH  051%=      5-min Rain = 0
KAHS 091912Z 22008KT 21/10 A3018 RMK A01 T02050101  RH  051%=      5-min Rain = 0
KAHS 091913Z 23007KT 21/10 A3018 RMK A01 T02070103  RH  051%=      5-min Rain = 0
KAHS 091914Z 22009KT 21/10 A3018 RMK A01 T02070103  RH  051%=      5-min Rain = 0
KAHS 091915Z 22007KT 20/10 A3017 RMK A01 T02040103  RH  052%=      5-min Rain = 0
KAHS 091916Z 23007KT 21/11 A3017 RMK A01 T02050108  RH  054%=      5-min Rain = 0
KAHS 091917Z 22009KT 21/11 A3017 RMK A01 T02060107  RH  053%=      5-min Rain = 0
KAHS 091918Z 21006KT 21/11 A3017 RMK A01 T02050109  RH  054%=      5-min Rain = 0
KAHS 091919Z 22006KT 21/11 A3017 RMK A01 T02090112  RH  054%=      5-min Rain = 0
KAHS 091920Z 22007KT 21/11 A3017 RMK A01 T02120112  RH  053%=      5-min Rain = 0
KAHS 091921Z 22007KT 21/11 A3017 RMK A01 T02120106  RH  051%=      5-min Rain = 0
KAHS 091922Z 21010KT 21/10 A3017 RMK A01 T02100104  RH  051%=      5-min Rain = 0
KAHS 091923Z 21009KT 21/10 A3017 RMK A01 T02080104  RH  051%=      5-min Rain = 0
KAHS 091924Z 22008KT 21/10 A3017 RMK A01 T02060104  RH  052%=      5-min Rain = 0
KAHS 091925Z 21009KT 21/11 A3017 RMK A01 T02050106  RH  053%=      5-min Rain = 0
KAHS 091926Z 19007KT 21/11 A3017 RMK A01 T02050106  RH  053%=      5-min Rain = 0
KAHS 091927Z 20006KT 21/11 A3017 RMK A01 T02050107  RH  053%=      5-min Rain = 0
KAHS 091928Z 21007KT 21/11 A3017 RMK A01 T02070108  RH  053%=      5-min Rain = 0
KAHS 091929Z 20008KT 21/11 A3017 RMK A01 T02070109  RH  053%=      5-min Rain = 0
KAHS 091930Z 23008KT 21/11 A3017 RMK A01 T02080110  RH  053%=      5-min Rain = 0
KAHS 091931Z 24006KT 21/11 A3016 RMK A01 T02070107  RH  053%=      5-min Rain = 0
KAHS 091932Z 22008KT 21/11 A3016 RMK A01 T02070109  RH  053%=      5-min Rain = 0
KAHS 091933Z 19010KT 21/11 A3016 RMK A01 T02070108  RH  053%=      5-min Rain = 0
KAHS 091934Z 20006KT 21/11 A3016 RMK A01 T02080108  RH  053%=      5-min Rain = 0
KAHS 091935Z 20007KT 21/11 A3016 RMK A01 T02080109  RH  053%=      5-min Rain = 0
KAHS 091936Z 21007KT 21/11 A3016 RMK A01 T02090111  RH  053%=      5-min Rain = 0
KAHS 091937Z 23007KT 21/11 A3016 RMK A01 T02120112  RH  053%=      5-min Rain = 0
KAHS 091938Z 21007KT 21/11 A3016 RMK A01 T02130111  RH  052%=      5-min Rain = 0
KAHS 091939Z 22010KT 21/11 A3016 RMK A01 T02130108  RH  051%=      5-min Rain = 0
KAHS 091940Z 21007KT 21/11 A3016 RMK A01 T02120110  RH  052%=      5-min Rain = 0
KAHS 091941Z 21007KT 21/11 A3016 RMK A01 T02120108  RH  051%=      5-min Rain = 0
KAHS 091942Z 21007KT 21/11 A3016 RMK A01 T02100106  RH  051%=      5-min Rain = 0
KAHS 091943Z 22007KT 21/11 A3016 RMK A01 T02110107  RH  052%=      5-min Rain = 0
KAHS 091944Z 24009KT 21/11 A3016 RMK A01 T02110106  RH  051%=      5-min Rain = 0
KAHS 091945Z 21009KT 21/11 A3016 RMK A01 T02110106  RH  051%=      5-min Rain = 0
KAHS 091946Z 20007KT 21/10 A3016 RMK A01 T02110104  RH  050%=      5-min Rain = 0
KAHS 091947Z 20007KT 21/11 A3016 RMK A01 T02120106  RH  051%=      5-min Rain = 0
KAHS 091948Z 21008KT 21/11 A3016 RMK A01 T02140106  RH  050%=      5-min Rain = 0
KAHS 091949Z 22007KT 21/11 A3016 RMK A01 T02130105  RH  050%=      5-min Rain = 0
KAHS 091950Z 24007KT 21/11 A3016 RMK A01 T02110106  RH  051%=      5-min Rain = 0
KAHS 091951Z 23007KT 21/11 A3015 RMK A01 T02120109  RH  052%=      5-min Rain = 0
KAHS 091952Z 20006KT 21/11 A3015 RMK A01 T02130109  RH  051%=      5-min Rain = 0
KAHS 091953Z 20009KT 21/11 A3015 RMK A01 T02130108  RH  051%=      5-min Rain = 0
KAHS 091954Z 20009KT 21/11 A3015 RMK A01 T02130109  RH  051%=      5-min Rain = 0
KAHS 091955Z 21005KT 21/11 A3015 RMK A01 T02120106  RH  051%=      5-min Rain = 0
KAHS 091956Z 20006KT 21/11 A3015 RMK A01 T02130111  RH  052%=      5-min Rain = 0
KAHS 091957Z 19007KT 22/11 A3015 RMK A01 T02150108  RH  051%=      5-min Rain = 0
KAHS 091958Z 18007KT 22/11 A3015 RMK A01 T02150109  RH  051%=      5-min Rain = 0
KAHS 091959Z 18005KT 22/11 A3015 RMK A01 T02160111  RH  051%=      5-min Rain = 0
KAHS 092000Z 20008KT 22/11 A3015 RMK A01 T02170111  RH  051%=      5-min Rain = 0
KAHS 092001Z 21008KT 22/11 A3015 RMK A01 T02150107  RH  050%=      5-min Rain = 0
KAHS 092002Z 20007KT 21/11 A3015 RMK A01 T02140106  RH  050%=      5-min Rain = 0
KAHS 092003Z 21008KT 22/11 A3015 RMK A01 T02160111  RH  051%=      5-min Rain = 0
KAHS 092004Z 21010KT 22/11 A3015 RMK A01 T02160107  RH  050%=      5-min Rain = 0
KAHS 092005Z 22008KT 21/11 A3015 RMK A01 T02140105  RH  050%=      5-min Rain = 0
KAHS 092006Z 21007KT 21/11 A3015 RMK A01 T02130106  RH  050%=      5-min Rain = 0
KAHS 092007Z 21005KT 21/11 A3015 RMK A01 T02130106  RH  051%=      5-min Rain = 0
KAHS 092008Z 20009KT 22/11 A3015 RMK A01 T02150108  RH  051%=      5-min Rain = 0
KAHS 092009Z 20010KT 22/11 A3015 RMK A01 T02150107  RH  050%=      5-min Rain = 0
KAHS 092010Z 22009KT 22/11 A3015 RMK A01 T02150107  RH  050%=      5-min Rain = 0
KAHS 092011Z 20010KT 22/11 A3015 RMK A01 T02150106  RH  050%=      5-min Rain = 0
KAHS 092012Z 21007KT 21/11 A3015 RMK A01 T02140106  RH  050%=      5-min Rain = 0
KAHS 092013Z 21007KT 21/11 A3015 RMK A01 T02140106  RH  050%=      5-min Rain = 0
KAHS 092014Z 21007KT 22/11 A3015 RMK A01 T02160108  RH  050%=      5-min Rain = 0
KAHS 092015Z 21008KT 22/11 A3015 RMK A01 T02160106  RH  049%=      5-min Rain = 0
KAHS 092016Z 21009KT 22/10 A3015 RMK A01 T02150103  RH  049%=      5-min Rain = 0
KAHS 092017Z 21009KT 21/10 A3015 RMK A01 T02140104  RH  049%=      5-min Rain = 0
KAHS 092018Z 20009KT 21/10 A3014 RMK A01 T02130103  RH  049%=      5-min Rain = 0
KAHS 092019Z 19009KT 21/10 A3014 RMK A01 T02140104  RH  049%=      5-min Rain = 0
KAHS 092020Z 20008KT 22/11 A3014 RMK A01 T02160105  RH  049%=      5-min Rain = 0
KAHS 092021Z 21007KT 22/11 A3014 RMK A01 T02170105  RH  049%=      5-min Rain = 0
KAHS 092022Z 20006KT 22/11 A3014 RMK A01 T02170105  RH  049%=      5-min Rain = 0
KAHS 092023Z 19007KT 22/10 A3014 RMK A01 T02160103  RH  049%=      5-min Rain = 0
KAHS 092024Z 20007KT 22/11 A3014 RMK A01 T02160105  RH  049%=      5-min Rain = 0
KAHS 092025Z 20007KT 22/11 A3014 RMK A01 T02180106  RH  049%=      5-min Rain = 0
KAHS 092026Z 20010KT 22/10 A3014 RMK A01 T02190104  RH  048%=      5-min Rain = 0
KAHS 092027Z 21009KT 22/10 A3014 RMK A01 T02180104  RH  048%=      5-min Rain = 0
KAHS 092028Z 21011KT 22/10 A3014 RMK A01 T02170101  RH  048%=      5-min Rain = 0
KAHS 092029Z 22009KT 22/10 A3014 RMK A01 T02160101  RH  048%=      5-min Rain = 0
KAHS 092030Z 22008KT 22/10 A3014 RMK A01 T02150101  RH  048%=      5-min Rain = 0
KAHS 092031Z 24007KT 22/10 A3014 RMK A01 T02150100  RH  048%=      5-min Rain = 0
KAHS 092032Z 20004KT 22/10 A3014 RMK A01 T02160102  RH  048%=      5-min Rain = 0
KAHS 092033Z 21007KT 22/10 A3014 RMK A01 T02180103  RH  048%=      5-min Rain = 0
KAHS 092034Z 21010KT 22/10 A3014 RMK A01 T02190101  RH  047%=      5-min Rain = 0
KAHS 092035Z 21008KT 22/10 A3014 RMK A01 T02180099  RH  047%=      5-min Rain = 0
KAHS 092036Z 23009KT 22/10 A3014 RMK A01 T02170098  RH  047%=      5-min Rain = 0
KAHS 092037Z 23008KT 22/10 A3014 RMK A01 T02160098  RH  047%=      5-min Rain = 0
KAHS 092038Z 22007KT 22/10 A3014 RMK A01 T02160099  RH  047%=      5-min Rain = 0
KAHS 092039Z 21007KT 22/10 A3014 RMK A01 T02180100  RH  047%=      5-min Rain = 0
KAHS 092040Z 19008KT 22/10 A3014 RMK A01 T02190099  RH  046%=      5-min Rain = 0
KAHS 092041Z 19008KT 22/10 A3014 RMK A01 T02190098  RH  046%=      5-min Rain = 0
KAHS 092042Z 20007KT 22/10 A3014 RMK A01 T02200099  RH  046%=      5-min Rain = 0
KAHS 092043Z 21007KT 22/10 A3014 RMK A01 T02200097  RH  046%=      5-min Rain = 0
KAHS 092044Z 23007KT 22/10 A3013 RMK A01 T02210099  RH  046%=      5-min Rain = 0
KAHS 092045Z 23007KT 22/10 A3013 RMK A01 T02210095  RH  045%=      5-min Rain = 0
KAHS 092046Z 21008KT 22/10 A3013 RMK A01 T02190096  RH  045%=      5-min Rain = 0
KAHS 092047Z 22006KT 22/09 A3013 RMK A01 T02190093  RH  045%=      5-min Rain = 0
KAHS 092048Z 22006KT 22/10 A3013 RMK A01 T02190095  RH  045%=      5-min Rain = 0
KAHS 092049Z 21005KT 22/10 A3013 RMK A01 T02190095  RH  045%=      5-min Rain = 0
KAHS 092050Z 21008KT 22/09 A3013 RMK A01 T02200094  RH  045%=      5-min Rain = 0
KAHS 092051Z 20006KT 22/09 A3013 RMK A01 T02180094  RH  045%=      5-min Rain = 0
KAHS 092052Z 19008KT 22/10 A3013 RMK A01 T02200097  RH  046%=      5-min Rain = 0
KAHS 092053Z 20009KT 22/10 A3013 RMK A01 T02200095  RH  045%=      5-min Rain = 0
KAHS 092054Z 20007KT 22/09 A3013 RMK A01 T02200094  RH  045%=      5-min Rain = 0
KAHS 092055Z 21007KT 22/09 A3013 RMK A01 T02200093  RH  044%=      5-min Rain = 0
KAHS 092056Z 21006KT 22/09 A3013 RMK A01 T02190093  RH  045%=      5-min Rain = 0
KAHS 092057Z 19006KT 22/09 A3013 RMK A01 T02200093  RH  044%=      5-min Rain = 0
KAHS 092058Z 21007KT 22/09 A3013 RMK A01 T02190091  RH  044%=      5-min Rain = 0
KAHS 092059Z 22007KT 22/09 A3013 RMK A01 T02190093  RH  045%=      5-min Rain = 0
KAHS 092100Z 23007KT 22/09 A3013 RMK A01 T02190092  RH  044%=      5-min Rain = 0
KAHS 092101Z 22007KT 22/09 A3013 RMK A01 T02190092  RH  044%=      5-min Rain = 0
KAHS 092102Z 21007KT 22/09 A3013 RMK A01 T02200091  RH  044%=      5-min Rain = 0
KAHS 092103Z 21005KT 22/09 A3013 RMK A01 T02200093  RH  044%=      5-min Rain = 0
KAHS 092104Z 21006KT 22/10 A3013 RMK A01 T02220097  RH  045%=      5-min Rain = 0
KAHS 092105Z 20008KT 22/10 A3013 RMK A01 T02240096  RH  044%=      5-min Rain = 0
KAHS 092106Z 19007KT 22/09 A3013 RMK A01 T02230094  RH  044%=      5-min Rain = 0
KAHS 092107Z 20008KT 22/09 A3013 RMK A01 T02220092  RH  043%=      5-min Rain = 0
KAHS 092108Z 21008KT 22/09 A3013 RMK A01 T02200090  RH  043%=      5-min Rain = 0
KAHS 092109Z 20008KT 22/09 A3013 RMK A01 T02190091  RH  044%=      5-min Rain = 0
KAHS 092110Z 19008KT 22/09 A3012 RMK A01 T02210093  RH  044%=      5-min Rain = 0
KAHS 092111Z 20007KT 22/09 A3012 RMK A01 T02210091  RH  044%=      5-min Rain = 0
KAHS 092112Z 22006KT 22/10 A3012 RMK A01 T02230095  RH  044%=      5-min Rain = 0
KAHS 092113Z 20006KT 23/10 A3012 RMK A01 T02250096  RH  044%=      5-min Rain = 0
KAHS 092114Z 19007KT 22/09 A3012 RMK A01 T02230090  RH  043%=      5-min Rain = 0
KAHS 092115Z 19008KT 22/09 A3012 RMK A01 T02220090  RH  043%=      5-min Rain = 0
KAHS 092116Z 19008KT 22/09 A3012 RMK A01 T02210090  RH  043%=      5-min Rain = 0
KAHS 092117Z 19009KT 22/09 A3012 RMK A01 T02210091  RH  043%=      5-min Rain = 0
KAHS 092118Z 21008KT 22/09 A3012 RMK A01 T02210090  RH  043%=      5-min Rain = 0
KAHS 092119Z 21007KT 22/09 A3012 RMK A01 T02210090  RH  043%=      5-min Rain = 0
KAHS 092120Z 22007KT 22/09 A3012 RMK A01 T02210090  RH  043%=      5-min Rain = 0
KAHS 092121Z 23007KT 22/09 A3012 RMK A01 T02220091  RH  043%=      5-min Rain = 0
KAHS 092122Z 21007KT 22/09 A3012 RMK A01 T02220091  RH  043%=      5-min Rain = 0
KAHS 092123Z 20006KT 22/09 A3012 RMK A01 T02220089  RH  043%=      5-min Rain = 0
KAHS 092124Z 21006KT 22/09 A3012 RMK A01 T02230092  RH  043%=      5-min Rain = 0
KAHS 092125Z 23007KT 22/09 A3012 RMK A01 T02220090  RH  043%=      5-min Rain = 0
KAHS 092126Z 23007KT 22/09 A3012 RMK A01 T02230091  RH  043%=      5-min Rain = 0
KAHS 092127Z 24009KT 22/09 A3012 RMK A01 T02220090  RH  043%=      5-min Rain = 0
KAHS 092128Z 23007KT 22/09 A3012 RMK A01 T02210088  RH  043%=      5-min Rain = 0
KAHS 092129Z 24006KT 22/09 A3012 RMK A01 T02220092  RH  043%=      5-min Rain = 0
KAHS 092130Z 24005KT 22/09 A3012 RMK A01 T02230089  RH  042%=      5-min Rain = 0
KAHS 092131Z 22005KT 22/09 A3012 RMK A01 T02240091  RH  043%=      5-min Rain = 0
KAHS 092132Z 22007KT 22/09 A3012 RMK A01 T02240087  RH  042%=      5-min Rain = 0
KAHS 092133Z 22007KT 22/09 A3012 RMK A01 T02230087  RH  042%=      5-min Rain = 0
KAHS 092134Z 22006KT 22/09 A3012 RMK A01 T02220085  RH  041%=      5-min Rain = 0
KAHS 092135Z 20009KT 22/09 A3012 RMK A01 T02220085  RH  042%=      5-min Rain = 0
KAHS 092136Z 19008KT 22/08 A3012 RMK A01 T02210084  RH  041%=      5-min Rain = 0
KAHS 092137Z 21008KT 22/09 A3012 RMK A01 T02210085  RH  042%=      5-min Rain = 0
KAHS 092138Z 22006KT 22/09 A3012 RMK A01 T02220088  RH  042%=      5-min Rain = 0
KAHS 092139Z 21006G11KT 22/09 A3012 RMK A01 T02230090  RH  043%=      5-min Rain = 0
KAHS 092140Z 20010KT 22/09 A3012 RMK A01 T02230088  RH  042%=      5-min Rain = 0
KAHS 092141Z 20008KT 22/09 A3012 RMK A01 T02220089  RH  043%=      5-min Rain = 0
KAHS 092142Z 21007KT 22/09 A3012 RMK A01 T02220090  RH  043%=      5-min Rain = 0
KAHS 092143Z 21007KT 22/09 A3012 RMK A01 T02240094  RH  043%=      5-min Rain = 0
KAHS 092144Z 21006KT 22/09 A3012 RMK A01 T02240088  RH  042%=      5-min Rain = 0
KAHS 092145Z 21006KT 22/09 A3012 RMK A01 T02240091  RH  043%=      5-min Rain = 0
KAHS 092146Z 23006KT 22/09 A3011 RMK A01 T02240088  RH  042%=      5-min Rain = 0
KAHS 092147Z 23006KT 22/08 A3011 RMK A01 T02220084  RH  041%=      5-min Rain = 0
KAHS 092148Z 22008KT 22/09 A3011 RMK A01 T02210085  RH  042%=      5-min Rain = 0
KAHS 092149Z 23008KT 22/08 A3011 RMK A01 T02210081  RH  041%=      5-min Rain = 0
KAHS 092150Z 24009KT 22/08 A3011 RMK A01 T02220082  RH  041%=      5-min Rain = 0
KAHS 092151Z 24008KT 22/08 A3011 RMK A01 T02220081  RH  040%=      5-min Rain = 0
KAHS 092152Z 24005KT 22/08 A3011 RMK A01 T02220080  RH  040%=      5-min Rain = 0
KAHS 092153Z 25005KT 22/08 A3011 RMK A01 T02220081  RH  040%=      5-min Rain = 0
KAHS 092154Z 24005KT 22/08 A3011 RMK A01 T02230084  RH  041%=      5-min Rain = 0
KAHS 092155Z 21006KT 22/08 A3011 RMK A01 T02240080  RH  039%=      5-min Rain = 0
KAHS 092156Z 20006KT 22/08 A3011 RMK A01 T02240078  RH  039%=      5-min Rain = 0
KAHS 092157Z 20005KT 22/09 A3011 RMK A01 T02240085  RH  041%=      5-min Rain = 0
KAHS 092158Z 21006KT 22/09 A3011 RMK A01 T02240085  RH  041%=      5-min Rain = 0
KAHS 092159Z 21007KT 22/09 A3011 RMK A01 T02230086  RH  042%=      5-min Rain = 0
KAHS 092200Z 20006KT 22/08 A3011 RMK A01 T02220083  RH  041%=      5-min Rain = 0
KAHS 092201Z 21007KT 22/09 A3011 RMK A01 T02210085  RH  042%=      5-min Rain = 0
KAHS 092202Z 21006KT 22/09 A3011 RMK A01 T02210086  RH  042%=      5-min Rain = 0
KAHS 092203Z 23005KT 22/09 A3011 RMK A01 T02220088  RH  042%=      5-min Rain = 0
KAHS 092204Z 22004KT 22/09 A3011 RMK A01 T02230089  RH  042%=      5-min Rain = 0
KAHS 092205Z 21006KT 22/09 A3011 RMK A01 T02240088  RH  042%=      5-min Rain = 0
KAHS 092206Z 20007KT 22/09 A3011 RMK A01 T02240088  RH  042%=      5-min Rain = 0
KAHS 092207Z 20007KT 22/09 A3011 RMK A01 T02240086  RH  041%=      5-min Rain = 0
KAHS 092208Z 19006KT 22/09 A3011 RMK A01 T02230085  RH  041%=      5-min Rain = 0
KAHS 092209Z 20006KT 22/09 A3011 RMK A01 T02230086  RH  042%=      5-min Rain = 0
KAHS 092210Z 20005KT 22/09 A3011 RMK A01 T02230087  RH  042%=      5-min Rain = 0
KAHS 092211Z 23007KT 22/09 A3011 RMK A01 T02240088  RH  042%=      5-min Rain = 0
KAHS 092212Z 23007KT 22/09 A3011 RMK A01 T02230086  RH  041%=      5-min Rain = 0
KAHS 092213Z 23007KT 22/09 A3011 RMK A01 T02230085  RH  041%=      5-min Rain = 0
KAHS 092214Z 22006KT 22/09 A3011 RMK A01 T02230086  RH  042%=      5-min Rain = 0
KAHS 092215Z 21005KT 22/08 A3011 RMK A01 T02230084  RH  041%=      5-min Rain = 0
KAHS 092216Z 22003KT 22/08 A3011 RMK A01 T02240084  RH  041%=      5-min Rain = 0
KAHS 092217Z 23005KT 22/08 A3011 RMK A01 T02240083  RH  040%=      5-min Rain = 0
KAHS 092218Z 24007KT 22/08 A3011 RMK A01 T02240083  RH  040%=      5-min Rain = 0
KAHS 092219Z 24005KT 22/08 A301 RMK A01 T02230083  RH  041%=      5-min Rain = 0
KAHS 092220Z 25006KT 22/09 A3011 RMK A01 T02240085  RH  041%=      5-min Rain = 0
KAHS 092221Z 22007KT 22/08 A301 RMK A01 T02230083  RH  041%=      5-min Rain = 0
KAHS 092222Z 21007KT 22/09 A301 RMK A01 T02220085  RH  042%=      5-min Rain = 0
KAHS 092223Z 23006KT 22/09 A301 RMK A01 T02210085  RH  042%=      5-min Rain = 0
KAHS 092224Z 21006KT 22/09 A301 RMK A01 T02200085  RH  042%=      5-min Rain = 0
KAHS 092225Z 21006KT 22/09 A301 RMK A01 T02200085  RH  042%=      5-min Rain = 0
KAHS 092226Z 20006KT 22/09 A301 RMK A01 T02200088  RH  043%=      5-min Rain = 0
KAHS 092227Z 21006KT 22/09 A301 RMK A01 T02210088  RH  043%=      5-min Rain = 0
KAHS 092228Z 21008KT 22/09 A301 RMK A01 T02210087  RH  042%=      5-min Rain = 0
KAHS 092229Z 21007KT 22/09 A301 RMK A01 T02200086  RH  042%=      5-min Rain = 0
KAHS 092230Z 22006KT 22/09 A301 RMK A01 T02200086  RH  042%=      5-min Rain = 0
KAHS 092231Z 23007KT 22/09 A301 RMK A01 T02200085  RH  042%=      5-min Rain = 0
KAHS 092232Z 23007KT 22/08 A301 RMK A01 T02190082  RH  041%=      5-min Rain = 0
KAHS 092233Z 22007KT 22/08 A301 RMK A01 T02190083  RH  042%=      5-min Rain = 0
KAHS 092234Z 23007KT 22/08 A301 RMK A01 T02190083  RH  042%=      5-min Rain = 0
KAHS 092235Z 23007KT 22/08 A301 RMK A01 T02190084  RH  042%=      5-min Rain = 0
KAHS 092236Z 23007KT 22/08 A301 RMK A01 T02190082  RH  041%=      5-min Rain = 0
KAHS 092237Z 21006KT 22/08 A301 RMK A01 T02190084  RH  042%=      5-min Rain = 0
KAHS 092238Z 21005KT 22/08 A301 RMK A01 T02190084  RH  042%=      5-min Rain = 0
KAHS 092239Z 22007KT 22/09 A301 RMK A01 T02190085  RH  042%=      5-min Rain = 0
KAHS 092240Z 22005KT 22/08 A301 RMK A01 T02190084  RH  042%=      5-min Rain = 0
KAHS 092241Z 23006KT 22/09 A301 RMK A01 T02190086  RH  043%=      5-min Rain = 0
KAHS 092242Z 23006KT 22/09 A301 RMK A01 T02190086  RH  043%=      5-min Rain = 0
KAHS 092243Z 22007KT 22/09 A301 RMK A01 T02190087  RH  043%=      5-min Rain = 0
KAHS 092244Z 22006KT 22/09 A301 RMK A01 T02190090  RH  044%=      5-min Rain = 0
KAHS 092245Z 21008KT 22/09 A301 RMK A01 T02180090  RH  044%=      5-min Rain = 0
KAHS 092246Z 20007KT 22/09 A301 RMK A01 T02170088  RH  044%=      5-min Rain = 0
KAHS 092247Z 20007KT 22/09 A301 RMK A01 T02160089  RH  044%=      5-min Rain = 0
KAHS 092248Z 19007KT 22/09 A301 RMK A01 T02150091  RH  045%=      5-min Rain = 0
KAHS 092249Z 19007KT 22/09 A301 RMK A01 T02150091  RH  045%=      5-min Rain = 0
KAHS 092250Z 20006KT 22/09 A301 RMK A01 T02150093  RH  046%=      5-min Rain = 0
KAHS 092251Z 21007KT 22/10 A301 RMK A01 T02150095  RH  046%=      5-min Rain = 0
KAHS 092252Z 20008KT 21/09 A301 RMK A01 T02140093  RH  046%=      5-min Rain = 0
KAHS 092253Z 21007KT 21/09 A301 RMK A01 T02130093  RH  046%=      5-min Rain = 0
KAHS 092254Z 20007KT 21/09 A301 RMK A01 T02120094  RH  047%=      5-min Rain = 0
KAHS 092255Z 20008KT 21/09 A301 RMK A01 T02120094  RH  047%=      5-min Rain = 0
KAHS 092256Z 20007KT 21/09 A301 RMK A01 T02100093  RH  047%=      5-min Rain = 0
KAHS 092257Z 20007KT 21/10 A301 RMK A01 T02090095  RH  048%=      5-min Rain = 0
KAHS 092258Z 20007KT 21/10 A301 RMK A01 T02090097  RH  049%=      5-min Rain = 0
KAHS 092259Z 19007KT 21/10 A301 RMK A01 T02090097  RH  049%=      5-min Rain = 0
KAHS 092300Z 19007KT 21/10 A301 RMK A01 T02090097  RH  049%=      5-min Rain = 0
KAHS 092301Z 19007KT 21/10 A301 RMK A01 T02090098  RH  049%=      5-min Rain = 0
KAHS 092302Z 19005KT 21/10 A301 RMK A01 T02080097  RH  049%=      5-min Rain = 0
KAHS 092303Z 19005KT 21/10 A301 RMK A01 T02080099  RH  050%=      5-min Rain = 0
KAHS 092304Z 19006KT 21/10 A301 RMK A01 T02070099  RH  050%=      5-min Rain = 0
KAHS 092305Z 19006KT 21/10 A301 RMK A01 T02070098  RH  050%=      5-min Rain = 0
KAHS 092306Z 19006KT 21/10 A301 RMK A01 T02060098  RH  050%=      5-min Rain = 0
KAHS 092307Z 20006KT 21/10 A301 RMK A01 T02050098  RH  050%=      5-min Rain = 0
KAHS 092308Z 19006KT 20/10 A301 RMK A01 T02040098  RH  050%=      5-min Rain = 0
KAHS 092309Z 20005KT 20/10 A301 RMK A01 T02030098  RH  051%=      5-min Rain = 0
KAHS 092310Z 20007KT 20/10 A301 RMK A01 T02030098  RH  051%=      5-min Rain = 0
KAHS 092311Z 20007KT 20/10 A301 RMK A01 T02020095  RH  050%=      5-min Rain = 0
KAHS 092312Z 20006KT 20/10 A301 RMK A01 T02010095  RH  050%=      5-min Rain = 0
KAHS 092313Z 20007KT 20/10 A301 RMK A01 T02010095  RH  051%=      5-min Rain = 0
KAHS 092314Z 20007KT 20/09 A301 RMK A01 T02000093  RH  050%=      5-min Rain = 0
KAHS 092315Z 20007KT 20/09 A301 RMK A01 T01990093  RH  051%=      5-min Rain = 0
KAHS 092316Z 20007KT 20/09 A301 RMK A01 T01980093  RH  051%=      5-min Rain = 0
KAHS 092317Z 19006KT 20/09 A301 RMK A01 T01970093  RH  051%=      5-min Rain = 0
KAHS 092318Z 20006KT 20/09 A301 RMK A01 T01960094  RH  052%=      5-min Rain = 0
KAHS 092319Z 20006KT 20/09 A301 RMK A01 T01960094  RH  052%=      5-min Rain = 0
KAHS 092320Z 20005KT 20/09 A301 RMK A01 T01950094  RH  052%=      5-min Rain = 0
KAHS 092321Z 19006KT 20/09 A301 RMK A01 T01950094  RH  052%=      5-min Rain = 0
KAHS 092322Z 20006KT 20/09 A301 RMK A01 T01950094  RH  052%=      5-min Rain = 0
KAHS 092323Z 20006KT 19/09 A301 RMK A01 T01940094  RH  052%=      5-min Rain = 0
KAHS 092324Z 20006KT 19/09 A301 RMK A01 T01930094  RH  053%=      5-min Rain = 0
KAHS 092325Z 20006KT 19/09 A301 RMK A01 T01920093  RH  053%=      5-min Rain = 0
KAHS 092326Z 20005KT 19/09 A301 RMK A01 T01920093  RH  053%=      5-min Rain = 0
KAHS 092327Z 20006KT 19/09 A301 RMK A01 T01910093  RH  053%=      5-min Rain = 0
KAHS 092328Z 20006KT 19/09 A301 RMK A01 T01900093  RH  053%=      5-min Rain = 0
KAHS 092329Z 20005KT 19/09 A301 RMK A01 T01890093  RH  054%=      5-min Rain = 0
KAHS 092330Z 20005KT 19/09 A301 RMK A01 T01890093  RH  054%=      5-min Rain = 0
KAHS 092331Z 20005KT 19/09 A301 RMK A01 T01880093  RH  054%=      5-min Rain = 0
KAHS 092332Z 20006KT 19/09 A301 RMK A01 T01870093  RH  054%=      5-min Rain = 0
KAHS 092333Z 20006KT 19/09 A301 RMK A01 T01870093  RH  054%=      5-min Rain = 0
KAHS 092334Z 20006KT 19/09 A301 RMK A01 T01860092  RH  054%=      5-min Rain = 0
KAHS 092335Z 20006KT 19/09 A301 RMK A01 T01850093  RH  055%=      5-min Rain = 0
KAHS 092336Z 20006KT 18/09 A301 RMK A01 T01840092  RH  055%=      5-min Rain = 0
KAHS 092337Z 21006KT 18/09 A301 RMK A01 T01830092  RH  055%=      5-min Rain = 0
KAHS 092338Z 20006KT 18/09 A301 RMK A01 T01820092  RH  056%=      5-min Rain = 0
KAHS 092339Z 20006KT 18/09 A301 RMK A01 T01810092  RH  056%=      5-min Rain = 0
KAHS 092340Z 20006KT 18/09 A301 RMK A01 T01810092  RH  056%=      5-min Rain = 0
KAHS 092341Z 21006KT 18/09 A301 RMK A01 T01800092  RH  056%=      5-min Rain = 0
KAHS 092342Z 21006KT 18/09 A301 RMK A01 T01790092  RH  056%=      5-min Rain = 0
KAHS 092343Z 21006KT 18/09 A301 RMK A01 T01790092  RH  057%=      5-min Rain = 0
KAHS 092344Z 21006KT 18/09 A301 RMK A01 T01780091  RH  057%=      5-min Rain = 0
KAHS 092345Z 21006KT 18/09 A301 RMK A01 T01780091  RH  057%=      5-min Rain = 0
KAHS 092346Z 21006KT 18/09 A301 RMK A01 T01770091  RH  057%=      5-min Rain = 0
KAHS 092347Z 21006KT 18/09 A301 RMK A01 T01760091  RH  057%=      5-min Rain = 0
KAHS 092348Z 21006KT 18/09 A301 RMK A01 T01750091  RH  058%=      5-min Rain = 0
KAHS 092349Z 21006KT 17/09 A301 RMK A01 T01740091  RH  058%=      5-min Rain = 0
KAHS 092350Z 21006KT 17/09 A301 RMK A01 T01730091  RH  058%=      5-min Rain = 0
KAHS 092351Z 21006KT 17/09 A301 RMK A01 T01720091  RH  059%=      5-min Rain = 0
KAHS 092352Z 21006KT 17/09 A301 RMK A01 T01720091  RH  059%=      5-min Rain = 0
KAHS 092353Z 20006KT 17/09 A301 RMK A01 T01710091  RH  059%=      5-min Rain = 0
KAHS 092354Z 21006KT 17/09 A301 RMK A01 T01710091  RH  059%=      5-min Rain = 0
KAHS 092355Z 20006KT 17/09 A301 RMK A01 T01700091  RH  059%=      5-min Rain = 0
KAHS 092356Z 20005KT 17/09 A301 RMK A01 T01690091  RH  060%=      5-min Rain = 0
KAHS 092357Z 20005KT 17/09 A301 RMK A01 T01690091  RH  060%=      5-min Rain = 0
KAHS 092358Z 20006KT 17/09 A301 RMK A01 T01680091  RH  060%=      5-min Rain = 0
KAHS 092359Z 20005KT 17/09 A301 RMK A01 T01680091  RH  060%=      5-min Rain = 0
KAHS 100000Z 20005KT 17/09 A301 RMK A01 T01670091  RH  061%=      5-min Rain = 0
KAHS 100001Z 20005KT 17/09 A301 RMK A01 T01670091  RH  061%=      5-min Rain = 0
KAHS 100002Z 20005KT 17/09 A301 RMK A01 T01660091  RH  061%=      5-min Rain = 0
KAHS 100003Z 20005KT 17/09 A301 RMK A01 T01650091  RH  062%=      5-min Rain = 0
KAHS 100004Z 20005KT 17/09 A301 RMK A01 T01650091  RH  062%=      5-min Rain = 0
KAHS 100005Z 20005KT 16/09 A301 RMK A01 T01640091  RH  062%=      5-min Rain = 0
KAHS 100006Z 21005KT 16/09 A301 RMK A01 T01640092  RH  062%=      5-min Rain = 0
KAHS 100007Z 20005KT 16/09 A3011 RMK A01 T01630091  RH  062%=      5-min Rain = 0
KAHS 100008Z 20006KT 16/09 A3011 RMK A01 T01630091  RH  062%=      5-min Rain = 0
KAHS 100009Z 20006KT 16/09 A3011 RMK A01 T01630091  RH  062%=      5-min Rain = 0
KAHS 100010Z 20005KT 16/09 A3011 RMK A01 T01620091  RH  063%=      5-min Rain = 0
KAHS 100011Z 20006KT 16/09 A3011 RMK A01 T01620091  RH  063%=      5-min Rain = 0
KAHS 100012Z 20006KT 16/09 A3011 RMK A01 T01610092  RH  063%=      5-min Rain = 0
KAHS 100013Z 20006KT 16/09 A3011 RMK A01 T01610092  RH  064%=      5-min Rain = 0
KAHS 100014Z 20006KT 16/09 A3011 RMK A01 T01600092  RH  064%=      5-min Rain = 0
KAHS 100015Z 20006KT 16/09 A3011 RMK A01 T01600092  RH  064%=      5-min Rain = 0
KAHS 100016Z 20006KT 16/09 A3011 RMK A01 T01590092  RH  064%=      5-min Rain = 0
KAHS 100017Z 20006KT 16/09 A3011 RMK A01 T01590092  RH  065%=      5-min Rain = 0
KAHS 100018Z 20006KT 16/09 A3011 RMK A01 T01580092  RH  065%=      5-min Rain = 0
KAHS 100019Z 20006KT 16/09 A3011 RMK A01 T01580092  RH  065%=      5-min Rain = 0
KAHS 100020Z 20006KT 16/09 A3011 RMK A01 T01570092  RH  065%=      5-min Rain = 0
KAHS 100021Z 20006KT 16/09 A3011 RMK A01 T01570092  RH  065%=      5-min Rain = 0
KAHS 100022Z 20006KT 16/09 A3011 RMK A01 T01570092  RH  066%=      5-min Rain = 0
KAHS 100023Z 20006KT 16/09 A3011 RMK A01 T01570093  RH  066%=      5-min Rain = 0
KAHS 100024Z 20006KT 16/09 A3011 RMK A01 T01560092  RH  066%=      5-min Rain = 0
KAHS 100025Z 20006KT 16/09 A3011 RMK A01 T01550092  RH  066%=      5-min Rain = 0
KAHS 100026Z 20006KT 16/09 A3011 RMK A01 T01550092  RH  066%=      5-min Rain = 0
KAHS 100027Z 20005KT 15/09 A3011 RMK A01 T01540092  RH  066%=      5-min Rain = 0
KAHS 100028Z 21005KT 15/09 A3011 RMK A01 T01540092  RH  067%=      5-min Rain = 0
KAHS 100029Z 20005KT 15/09 A3011 RMK A01 T01530092  RH  067%=      5-min Rain = 0
KAHS 100030Z 20005KT 15/09 A3011 RMK A01 T01530092  RH  067%=      5-min Rain = 0
KAHS 100031Z 20005KT 15/09 A3011 RMK A01 T01530091  RH  067%=      5-min Rain = 0
KAHS 100032Z 20006KT 15/09 A3011 RMK A01 T01530092  RH  067%=      5-min Rain = 0
KAHS 100033Z 20006KT 15/09 A3011 RMK A01 T01530092  RH  067%=      5-min Rain = 0
KAHS 100034Z 20005KT 15/09 A3011 RMK A01 T01530091  RH  067%=      5-min Rain = 0
KAHS 100035Z 20006KT 15/09 A3011 RMK A01 T01520091  RH  067%=      5-min Rain = 0
KAHS 100036Z 20006KT 15/09 A3011 RMK A01 T01510091  RH  067%=      5-min Rain = 0
KAHS 100037Z 20006KT 15/09 A3011 RMK A01 T01510091  RH  067%=      5-min Rain = 0
KAHS 100038Z 20006KT 15/09 A3011 RMK A01 T01510091  RH  067%=      5-min Rain = 0
KAHS 100039Z 20005KT 15/09 A3011 RMK A01 T01500091  RH  067%=      5-min Rain = 0
KAHS 100040Z 20006KT 15/09 A3011 RMK A01 T01500090  RH  068%=      5-min Rain = 0
KAHS 100041Z 21006KT 15/09 A3011 RMK A01 T01500090  RH  068%=      5-min Rain = 0
KAHS 100042Z 20006KT 15/09 A3011 RMK A01 T01490090  RH  068%=      5-min Rain = 0
KAHS 100043Z 21006KT 15/09 A3011 RMK A01 T01490090  RH  068%=      5-min Rain = 0
KAHS 100044Z 20006KT 15/09 A3011 RMK A01 T01480090  RH  068%=      5-min Rain = 0
KAHS 100045Z 20007KT 15/09 A3011 RMK A01 T01480090  RH  068%=      5-min Rain = 0
KAHS 100046Z 21007KT 15/09 A3011 RMK A01 T01480091  RH  069%=      5-min Rain = 0
KAHS 100047Z 21007KT 15/09 A3011 RMK A01 T01470091  RH  069%=      5-min Rain = 0
KAHS 100048Z 21007KT 15/09 A3011 RMK A01 T01470091  RH  069%=      5-min Rain = 0
KAHS 100049Z 21007KT 15/09 A3011 RMK A01 T01470091  RH  069%=      5-min Rain = 0
KAHS 100050Z 21007KT 15/09 A3011 RMK A01 T01470091  RH  069%=      5-min Rain = 0
KAHS 100051Z 20007KT 15/09 A3011 RMK A01 T01470091  RH  069%=      5-min Rain = 0
KAHS 100052Z 20007KT 15/09 A3011 RMK A01 T01470091  RH  069%=      5-min Rain = 0
KAHS 100053Z 20008KT 15/09 A3011 RMK A01 T01480092  RH  069%=      5-min Rain = 0
KAHS 100054Z 20008KT 15/09 A3011 RMK A01 T01480092  RH  069%=      5-min Rain = 0
KAHS 100055Z 20007KT 15/09 A3011 RMK A01 T01480091  RH  069%=      5-min Rain = 0
KAHS 100056Z 21006KT 15/09 A3011 RMK A01 T01480092  RH  069%=      5-min Rain = 0
KAHS 100057Z 20006KT 15/09 A3011 RMK A01 T01470091  RH  069%=      5-min Rain = 0
KAHS 100058Z 20005KT 15/09 A3011 RMK A01 T01460091  RH  070%=      5-min Rain = 0
KAHS 100059Z 21006KT 15/09 A3011 RMK A01 T01460091  RH  070%=      5-min Rain = 0
KAHS 100100Z 21006KT 15/09 A3011 RMK A01 T01450091  RH  070%=      5-min Rain = 0
KAHS 100101Z 20006KT 14/09 A3011 RMK A01 T01440091  RH  070%=      5-min Rain = 0
KAHS 100102Z 20006KT 14/09 A3011 RMK A01 T01440091  RH  070%=      5-min Rain = 0
KAHS 100103Z 20005KT 14/09 A3011 RMK A01 T01430090  RH  071%=      5-min Rain = 0
KAHS 100104Z 20005KT 14/09 A3011 RMK A01 T01420090  RH  071%=      5-min Rain = 0
KAHS 100105Z 20005KT 14/09 A3011 RMK A01 T01420090  RH  071%=      5-min Rain = 0
KAHS 100106Z 20004KT 14/09 A3011 RMK A01 T01410090  RH  071%=      5-min Rain = 0
KAHS 100107Z 20005KT 14/09 A3011 RMK A01 T01410090  RH  071%=      5-min Rain = 0
KAHS 100108Z 20005KT 14/09 A3011 RMK A01 T01400090  RH  071%=      5-min Rain = 0
KAHS 100109Z 20005KT 14/09 A3011 RMK A01 T01400090  RH  072%=      5-min Rain = 0
KAHS 100110Z 20005KT 14/09 A3011 RMK A01 T01400090  RH  072%=      5-min Rain = 0
KAHS 100111Z 20005KT 14/09 A3011 RMK A01 T01400090  RH  072%=      5-min Rain = 0
KAHS 100112Z 20005KT 14/09 A3011 RMK A01 T01400090  RH  072%=      5-min Rain = 0
KAHS 100113Z 20004KT 14/09 A3011 RMK A01 T01390090  RH  072%=      5-min Rain = 0
KAHS 100114Z 20005KT 14/09 A3012 RMK A01 T01380089  RH  072%=      5-min Rain = 0
KAHS 100115Z 20005KT 14/09 A3012 RMK A01 T01380089  RH  072%=      5-min Rain = 0
KAHS 100116Z 20005KT 14/09 A3012 RMK A01 T01370089  RH  073%=      5-min Rain = 0
KAHS 100117Z 20005KT 14/09 A3012 RMK A01 T01370089  RH  073%=      5-min Rain = 0
KAHS 100118Z 20005KT 14/09 A3012 RMK A01 T01370090  RH  073%=      5-min Rain = 0
KAHS 100119Z 20005KT 14/09 A3012 RMK A01 T01360089  RH  073%=      5-min Rain = 0
KAHS 100120Z 20005KT 14/09 A3012 RMK A01 T01360089  RH  073%=      5-min Rain = 0
KAHS 100121Z 20005KT 14/09 A3012 RMK A01 T01360089  RH  073%=      5-min Rain = 0
KAHS 100122Z 20005KT 14/09 A3012 RMK A01 T01350089  RH  074%=      5-min Rain = 0
KAHS 100123Z 19005KT 14/09 A3012 RMK A01 T01350089  RH  074%=      5-min Rain = 0
KAHS 100124Z 19005KT 14/09 A3012 RMK A01 T01350090  RH  074%=      5-min Rain = 0
KAHS 100125Z 19005KT 14/09 A3012 RMK A01 T01350090  RH  074%=      5-min Rain = 0
KAHS 100126Z 19005KT 13/09 A3012 RMK A01 T01340089  RH  074%=      5-min Rain = 0
KAHS 100127Z 20006KT 13/09 A3012 RMK A01 T01330089  RH  075%=      5-min Rain = 0
KAHS 100128Z 20006KT 13/09 A3012 RMK A01 T01330090  RH  075%=      5-min Rain = 0
KAHS 100129Z 20006KT 13/09 A3012 RMK A01 T01330090  RH  075%=      5-min Rain = 0
KAHS 100130Z 21005KT 13/09 A3012 RMK A01 T01330091  RH  075%=      5-min Rain = 0
KAHS 100131Z 21006KT 13/09 A3012 RMK A01 T01320090  RH  076%=      5-min Rain = 0
KAHS 100132Z 21006KT 13/09 A3012 RMK A01 T01330091  RH  076%=      5-min Rain = 0
KAHS 100133Z 21005KT 13/09 A3012 RMK A01 T01320090  RH  076%=      5-min Rain = 0
KAHS 100134Z 21005KT 13/09 A3012 RMK A01 T01310089  RH  075%=      5-min Rain = 0
KAHS 100135Z 20005KT 13/09 A3012 RMK A01 T01300088  RH  076%=      5-min Rain = 0
KAHS 100136Z 21005KT 13/09 A3012 RMK A01 T01290088  RH  076%=      5-min Rain = 0
KAHS 100137Z 21006KT 13/09 A3012 RMK A01 T01280088  RH  077%=      5-min Rain = 0
KAHS 100138Z 21005KT 13/09 A3012 RMK A01 T01280088  RH  077%=      5-min Rain = 0
KAHS 100139Z 21006KT 13/09 A3012 RMK A01 T01280089  RH  077%=      5-min Rain = 0
KAHS 100140Z 21006KT 13/09 A3012 RMK A01 T01270088  RH  077%=      5-min Rain = 0
KAHS 100141Z 21006KT 13/09 A3012 RMK A01 T01270088  RH  077%=      5-min Rain = 0
KAHS 100142Z 21006KT 13/09 A3012 RMK A01 T01260088  RH  078%=      5-min Rain = 0
KAHS 100143Z 21006KT 13/09 A3012 RMK A01 T01260088  RH  078%=      5-min Rain = 0
KAHS 100144Z 21006KT 13/09 A3012 RMK A01 T01250088  RH  078%=      5-min Rain = 0
KAHS 100145Z 21006KT 13/09 A3012 RMK A01 T01250088  RH  078%=      5-min Rain = 0
KAHS 100146Z 21005KT 13/09 A3012 RMK A01 T01250088  RH  078%=      5-min Rain = 0
KAHS 100147Z 21005KT 13/09 A3012 RMK A01 T01250089  RH  079%=      5-min Rain = 0
KAHS 100148Z 22004KT 13/09 A3012 RMK A01 T01250089  RH  078%=      5-min Rain = 0
KAHS 100149Z 22005KT 13/09 A3012 RMK A01 T01250088  RH  078%=      5-min Rain = 0
KAHS 100150Z 22005KT 13/09 A3012 RMK A01 T01260089  RH  078%=      5-min Rain = 0
KAHS 100151Z 23005KT 13/09 A3012 RMK A01 T01260089  RH  078%=      5-min Rain = 0
KAHS 100152Z 22005KT 13/09 A3012 RMK A01 T01270089  RH  078%=      5-min Rain = 0
KAHS 100153Z 22005KT 13/09 A3012 RMK A01 T01270089  RH  078%=      5-min Rain = 0
KAHS 100154Z 22004KT 13/09 A3012 RMK A01 T01270089  RH  077%=      5-min Rain = 0
KAHS 100155Z 22004KT 13/09 A3012 RMK A01 T01270088  RH  077%=      5-min Rain = 0
KAHS 100156Z 22005KT 13/09 A3012 RMK A01 T01260088  RH  078%=      5-min Rain = 0
KAHS 100157Z 22005KT 13/09 A3012 RMK A01 T01260088  RH  078%=      5-min Rain = 0
KAHS 100158Z 22005KT 13/09 A3012 RMK A01 T01250088  RH  078%=      5-min Rain = 0
KAHS 100159Z 22005KT 13/09 A3012 RMK A01 T01250088  RH  078%=      5-min Rain = 0
KAHS 100200Z 22005KT 12/09 A3012 RMK A01 T01240088  RH  079%=      5-min Rain = 0
KAHS 100201Z 22005KT 12/09 A3012 RMK A01 T01240088  RH  079%=      5-min Rain = 0
KAHS 100202Z 22005KT 12/09 A3012 RMK A01 T01230088  RH  079%=      5-min Rain = 0
KAHS 100203Z 22005KT 12/09 A3012 RMK A01 T01230088  RH  079%=      5-min Rain = 0
KAHS 100204Z 22005KT 12/09 A3012 RMK A01 T01230089  RH  079%=      5-min Rain = 0
KAHS 100205Z 22005KT 12/09 A3012 RMK A01 T01230089  RH  080%=      5-min Rain = 0
KAHS 100206Z 22005KT 12/09 A3012 RMK A01 T01230089  RH  080%=      5-min Rain = 0
KAHS 100207Z 22005KT 12/09 A3012 RMK A01 T01230089  RH  080%=      5-min Rain = 0
KAHS 100208Z 22005KT 12/09 A3012 RMK A01 T01230089  RH  080%=      5-min Rain = 0
KAHS 100209Z 22005KT 12/09 A3012 RMK A01 T01230089  RH  080%=      5-min Rain = 0
KAHS 100210Z 23005KT 12/09 A3012 RMK A01 T01220089  RH  080%=      5-min Rain = 0
KAHS 100211Z 23005KT 12/09 A3012 RMK A01 T01220089  RH  080%=      5-min Rain = 0
KAHS 100212Z 23005KT 12/09 A3012 RMK A01 T01220089  RH  080%=      5-min Rain = 0
KAHS 100213Z 23005KT 12/09 A3012 RMK A01 T01220090  RH  081%=      5-min Rain = 0
KAHS 100214Z 23005KT 12/09 A3012 RMK A01 T01220090  RH  081%=      5-min Rain = 0
KAHS 100215Z 23005KT 12/09 A3012 RMK A01 T01220090  RH  081%=      5-min Rain = 0
KAHS 100216Z 23005KT 12/09 A3012 RMK A01 T01220090  RH  081%=      5-min Rain = 0
KAHS 100217Z 22005KT 12/09 A3011 RMK A01 T01220090  RH  081%=      5-min Rain = 0
KAHS 100218Z 23005KT 12/09 A3012 RMK A01 T01220090  RH  081%=      5-min Rain = 0
KAHS 100219Z 23005KT 12/09 A3012 RMK A01 T01210090  RH  081%=      5-min Rain = 0
KAHS 100220Z 23005KT 12/09 A3012 RMK A01 T01210090  RH  081%=      5-min Rain = 0
KAHS 100221Z 23006KT 12/09 A3012 RMK A01 T01210091  RH  082%=      5-min Rain = 0
KAHS 100222Z 23006KT 12/09 A3012 RMK A01 T01210091  RH  082%=      5-min Rain = 0
KAHS 100223Z 22005KT 12/09 A3012 RMK A01 T01210091  RH  082%=      5-min Rain = 0
KAHS 100224Z 22005KT 12/09 A3012 RMK A01 T01210091  RH  082%=      5-min Rain = 0
KAHS 100225Z 22005KT 12/09 A3012 RMK A01 T01210091  RH  082%=      5-min Rain = 0
KAHS 100226Z 22005KT 12/09 A3012 RMK A01 T01220091  RH  082%=      5-min Rain = 0
KAHS 100227Z 22005KT 12/09 A3012 RMK A01 T01220091  RH  082%=      5-min Rain = 0
KAHS 100228Z 22005KT 12/09 A3012 RMK A01 T01220092  RH  081%=      5-min Rain = 0
KAHS 100229Z 22005KT 12/09 A3012 RMK A01 T01220091  RH  081%=      5-min Rain = 0
KAHS 100230Z 22005KT 12/09 A3012 RMK A01 T01230091  RH  081%=      5-min Rain = 0
KAHS 100231Z 22005KT 12/09 A3011 RMK A01 T01230091  RH  081%=      5-min Rain = 0
KAHS 100232Z 22005KT 12/09 A3011 RMK A01 T01230091  RH  081%=      5-min Rain = 0
KAHS 100233Z 22005KT 12/09 A3011 RMK A01 T01230091  RH  081%=      5-min Rain = 0
KAHS 100234Z 22005KT 12/09 A3011 RMK A01 T01220091  RH  081%=      5-min Rain = 0
KAHS 100235Z 22005KT 12/09 A3011 RMK A01 T01220091  RH  081%=      5-min Rain = 0
KAHS 100236Z 22005KT 12/09 A3011 RMK A01 T01220091  RH  081%=      5-min Rain = 0
KAHS 100237Z 22005KT 12/09 A3011 RMK A01 T01220091  RH  081%=      5-min Rain = 0
KAHS 100238Z 23005KT 12/09 A3011 RMK A01 T01220091  RH  081%=      5-min Rain = 0
KAHS 100239Z 23005KT 12/09 A3011 RMK A01 T01220091  RH  081%=      5-min Rain = 0
KAHS 100240Z 22005KT 12/09 A3011 RMK A01 T01220091  RH  081%=      5-min Rain = 0
KAHS 100241Z 22006KT 12/09 A3011 RMK A01 T01220092  RH  081%=      5-min Rain = 0
KAHS 100242Z 22006KT 12/09 A3011 RMK A01 T01220091  RH  081%=      5-min Rain = 0
KAHS 100243Z 22005KT 12/09 A3011 RMK A01 T01220091  RH  081%=      5-min Rain = 0
KAHS 100244Z 22005KT 12/09 A3011 RMK A01 T01220092  RH  081%=      5-min Rain = 0
KAHS 100245Z 22005KT 12/09 A3011 RMK A01 T01230092  RH  081%=      5-min Rain = 0
KAHS 100246Z 22006KT 12/09 A3011 RMK A01 T01230092  RH  081%=      5-min Rain = 0
KAHS 100247Z 22006KT 12/09 A3011 RMK A01 T01230092  RH  081%=      5-min Rain = 0
KAHS 100248Z 22006KT 12/09 A3011 RMK A01 T01240092  RH  081%=      5-min Rain = 0
KAHS 100249Z 22006KT 12/09 A3011 RMK A01 T01240092  RH  081%=      5-min Rain = 0
KAHS 100250Z 22006KT 12/09 A3011 RMK A01 T01240092  RH  081%=      5-min Rain = 0
KAHS 100251Z 22006KT 12/09 A3011 RMK A01 T01240093  RH  081%=      5-min Rain = 0
KAHS 100252Z 22006KT 13/09 A3011 RMK A01 T01250093  RH  081%=      5-min Rain = 0
KAHS 100253Z 22006KT 13/09 A3011 RMK A01 T01250093  RH  081%=      5-min Rain = 0
KAHS 100254Z 21006KT 13/09 A3011 RMK A01 T01250093  RH  081%=      5-min Rain = 0
KAHS 100255Z 21005KT 13/09 A3011 RMK A01 T01250093  RH  080%=      5-min Rain = 0
KAHS 100256Z 21005KT 13/09 A3011 RMK A01 T01250093  RH  081%=      5-min Rain = 0
KAHS 100257Z 21005KT 13/09 A3011 RMK A01 T01250093  RH  081%=      5-min Rain = 0
KAHS 100258Z 21005KT 13/09 A3011 RMK A01 T01250093  RH  081%=      5-min Rain = 0
KAHS 100259Z 21005KT 13/09 A3011 RMK A01 T01250093  RH  081%=      5-min Rain = 0
KAHS 100300Z 21005KT 13/09 A3011 RMK A01 T01250092  RH  081%=      5-min Rain = 0
KAHS 100301Z 21005KT 12/09 A3011 RMK A01 T01240092  RH  081%=      5-min Rain = 0
KAHS 100302Z 21005KT 12/09 A3011 RMK A01 T01240093  RH  081%=      5-min Rain = 0
KAHS 100303Z 21005KT 13/09 A3011 RMK A01 T01250093  RH  081%=      5-min Rain = 0
KAHS 100304Z 21005KT 12/09 A3011 RMK A01 T01240093  RH  081%=      5-min Rain = 0
KAHS 100305Z 21005KT 12/09 A3011 RMK A01 T01240093  RH  081%=      5-min Rain = 0
KAHS 100306Z 22005KT 12/09 A3011 RMK A01 T01240093  RH  081%=      5-min Rain = 0
KAHS 100307Z 22005KT 12/09 A3011 RMK A01 T01240093  RH  082%=      5-min Rain = 0
KAHS 100308Z 22005KT 12/09 A3011 RMK A01 T01230093  RH  082%=      5-min Rain = 0
KAHS 100309Z 22005KT 12/09 A3011 RMK A01 T01230093  RH  082%=      5-min Rain = 0
KAHS 100310Z 22004KT 12/09 A3011 RMK A01 T01230094  RH  082%=      5-min Rain = 0
KAHS 100311Z 22004KT 12/09 A301 RMK A01 T01230093  RH  082%=      5-min Rain = 0
KAHS 100312Z 22004KT 12/09 A301 RMK A01 T01220093  RH  082%=      5-min Rain = 0
KAHS 100313Z 22004KT 12/09 A301 RMK A01 T01220092  RH  082%=      5-min Rain = 0
KAHS 100314Z 22004KT 12/09 A301 RMK A01 T01210092  RH  082%=      5-min Rain = 0
KAHS 100315Z 22004KT 12/09 A301 RMK A01 T01210092  RH  083%=      5-min Rain = 0
KAHS 100316Z 22004KT 12/09 A301 RMK A01 T01200091  RH  083%=      5-min Rain = 0
KAHS 100317Z 23004KT 12/09 A301 RMK A01 T01190092  RH  083%=      5-min Rain = 0
KAHS 100318Z 23004KT 12/09 A301 RMK A01 T01180091  RH  084%=      5-min Rain = 0
KAHS 100319Z 23004KT 12/09 A301 RMK A01 T01180092  RH  084%=      5-min Rain = 0
KAHS 100320Z 22004KT 12/09 A301 RMK A01 T01180092  RH  084%=      5-min Rain = 0
KAHS 100321Z 22005KT 12/09 A301 RMK A01 T01180093  RH  084%=      5-min Rain = 0
KAHS 100322Z 22005KT 12/09 A301 RMK A01 T01180092  RH  084%=      5-min Rain = 0
KAHS 100323Z 22005KT 12/09 A301 RMK A01 T01180092  RH  084%=      5-min Rain = 0
KAHS 100324Z 22005KT 12/09 A301 RMK A01 T01180091  RH  084%=      5-min Rain = 0
KAHS 100325Z 22005KT 12/09 A301 RMK A01 T01180091  RH  084%=      5-min Rain = 0
KAHS 100326Z 22005KT 12/09 A301 RMK A01 T01180092  RH  084%=      5-min Rain = 0
KAHS 100327Z 22005KT 12/09 A301 RMK A01 T01180092  RH  084%=      5-min Rain = 0
KAHS 100328Z 21005KT 12/09 A301 RMK A01 T01190092  RH  084%=      5-min Rain = 0
KAHS 100329Z 21004KT 12/09 A301 RMK A01 T01200093  RH  084%=      5-min Rain = 0
KAHS 100330Z 21004KT 12/09 A301 RMK A01 T01200092  RH  083%=      5-min Rain = 0
KAHS 100331Z 22005KT 12/09 A301 RMK A01 T01200091  RH  082%=      5-min Rain = 0
KAHS 100332Z 22005KT 12/09 A301 RMK A01 T01200091  RH  082%=      5-min Rain = 0
KAHS 100333Z 22004KT 12/09 A301 RMK A01 T01190090  RH  082%=      5-min Rain = 0
KAHS 100334Z 22004KT 12/09 A301 RMK A01 T01180090  RH  083%=      5-min Rain = 0
KAHS 100335Z 21004KT 12/09 A301 RMK A01 T01180090  RH  083%=      5-min Rain = 0
KAHS 100336Z 21004KT 12/09 A301 RMK A01 T01170089  RH  083%=      5-min Rain = 0
KAHS 100337Z 21004KT 12/09 A301 RMK A01 T01160089  RH  083%=      5-min Rain = 0
KAHS 100338Z 21004KT 12/09 A301 RMK A01 T01160089  RH  084%=      5-min Rain = 0
KAHS 100339Z 21004KT 12/09 A301 RMK A01 T01160090  RH  084%=      5-min Rain = 0
KAHS 100340Z 20004KT 12/09 A301 RMK A01 T01160089  RH  084%=      5-min Rain = 0
KAHS 100341Z 20004KT 12/09 A301 RMK A01 T01160090  RH  084%=      5-min Rain = 0
KAHS 100342Z 20005KT 12/09 A301 RMK A01 T01160090  RH  084%=      5-min Rain = 0
KAHS 100343Z 20005KT 12/09 A301 RMK A01 T01160090  RH  084%=      5-min Rain = 0
KAHS 100344Z 20005KT 12/09 A301 RMK A01 T01160089  RH  084%=      5-min Rain = 0
KAHS 100345Z 20005KT 12/09 A301 RMK A01 T01150088  RH  084%=      5-min Rain = 0
KAHS 100346Z 20004KT 11/09 A301 RMK A01 T01140088  RH  084%=      5-min Rain = 0
KAHS 100347Z 20004KT 11/09 A301 RMK A01 T01130087  RH  084%=      5-min Rain = 0
KAHS 100348Z 20004KT 11/09 A301 RMK A01 T01120087  RH  084%=      5-min Rain = 0
KAHS 100349Z 20004KT 11/09 A301 RMK A01 T01110087  RH  085%=      5-min Rain = 0
KAHS 100350Z 21004KT 11/09 A301 RMK A01 T01110086  RH  085%=      5-min Rain = 0
KAHS 100351Z 21004KT 11/09 A301 RMK A01 T01090085  RH  085%=      5-min Rain = 0
KAHS 100352Z 21004KT 11/09 A301 RMK A01 T01090085  RH  086%=      5-min Rain = 0
KAHS 100353Z 21004KT 11/09 A301 RMK A01 T01090086  RH  086%=      5-min Rain = 0
KAHS 100354Z 22004KT 11/09 A301 RMK A01 T01090087  RH  087%=      5-min Rain = 0
KAHS 100355Z 22004KT 11/09 A301 RMK A01 T01090087  RH  087%=      5-min Rain = 0
KAHS 100356Z 22004KT 11/09 A301 RMK A01 T01090088  RH  087%=      5-min Rain = 0
KAHS 100357Z 22004KT 11/09 A301 RMK A01 T01090088  RH  087%=      5-min Rain = 0
KAHS 100358Z 22005KT 11/09 A301 RMK A01 T01080087  RH  087%=      5-min Rain = 0
KAHS 100359Z 22004KT 11/09 A301 RMK A01 T01080087  RH  087%=      5-min Rain = 0
KAHS 100400Z 22004KT 11/09 A301 RMK A01 T01080087  RH  087%=      5-min Rain = 0
KAHS 100401Z 22004KT 11/09 A301 RMK A01 T01080088  RH  088%=      5-min Rain = 0
KAHS 100402Z 22004KT 11/09 A301 RMK A01 T01080089  RH  088%=      5-min Rain = 0
KAHS 100403Z 22004KT 11/09 A301 RMK A01 T01090090  RH  088%=      5-min Rain = 0
KAHS 100404Z 22004KT 11/09 A301 RMK A01 T01090090  RH  088%=      5-min Rain = 0
KAHS 100405Z 22004KT 11/09 A301 RMK A01 T01100090  RH  088%=      5-min Rain = 0
KAHS 100406Z 22004KT 11/09 A301 RMK A01 T01100090  RH  088%=      5-min Rain = 0
KAHS 100407Z 22004KT 11/09 A301 RMK A01 T01110091  RH  087%=      5-min Rain = 0
KAHS 100408Z 22004KT 11/09 A301 RMK A01 T01110091  RH  087%=      5-min Rain = 0
KAHS 100409Z 22003KT 11/09 A301 RMK A01 T01120091  RH  087%=      5-min Rain = 0
KAHS 100410Z 22003KT 11/09 A301 RMK A01 T01130091  RH  087%=      5-min Rain = 0
KAHS 100411Z 22003KT 11/09 A301 RMK A01 T01130091  RH  086%=      5-min Rain = 0
KAHS 100412Z 22003KT 11/09 A301 RMK A01 T01130091  RH  086%=      5-min Rain = 0
KAHS 100413Z 22003KT 11/09 A301 RMK A01 T01140091  RH  086%=      5-min Rain = 0
KAHS 100414Z 22004KT 11/09 A301 RMK A01 T01140091  RH  086%=      5-min Rain = 0
KAHS 100415Z 22003KT 11/09 A301 RMK A01 T01140091  RH  086%=      5-min Rain = 0
KAHS 100416Z 23003KT 12/09 A301 RMK A01 T01150092  RH  086%=      5-min Rain = 0
KAHS 100417Z 24003KT 12/09 A301 RMK A01 T01150092  RH  086%=      5-min Rain = 0
KAHS 100418Z 24003KT 12/09 A301 RMK A01 T01150092  RH  086%=      5-min Rain = 0
KAHS 100419Z 23003KT 12/09 A301 RMK A01 T01160092  RH  086%=      5-min Rain = 0
KAHS 100420Z 23003KT 12/09 A301 RMK A01 T01160092  RH  085%=      5-min Rain = 0
KAHS 100421Z 23003KT 12/09 A301 RMK A01 T01160092  RH  085%=      5-min Rain = 0
KAHS 100422Z 24003KT 12/09 A301 RMK A01 T01160092  RH  085%=      5-min Rain = 0
KAHS 100423Z 24004KT 12/09 A301 RMK A01 T01160092  RH  085%=      5-min Rain = 0
KAHS 100424Z 24004KT 12/09 A301 RMK A01 T01160091  RH  085%=      5-min Rain = 0
KAHS 100425Z 24004KT 12/09 A301 RMK A01 T01150090  RH  085%=      5-min Rain = 0
KAHS 100426Z 23004KT 12/09 A301 RMK A01 T01150091  RH  085%=      5-min Rain = 0
KAHS 100427Z 23004KT 12/09 A301 RMK A01 T01150092  RH  086%=      5-min Rain = 0
KAHS 100428Z 23004KT 12/09 A301 RMK A01 T01150091  RH  085%=      5-min Rain = 0
KAHS 100429Z 23004KT 11/09 A301 RMK A01 T01130088  RH  085%=      5-min Rain = 0
KAHS 100430Z 23004KT 11/09 A301 RMK A01 T01110086  RH  085%=      5-min Rain = 0
KAHS 100431Z 23004KT 11/09 A301 RMK A01 T01100086  RH  085%=      5-min Rain = 0
KAHS 100432Z 23004KT 11/09 A301 RMK A01 T01090087  RH  086%=      5-min Rain = 0
KAHS 100433Z 23004KT 11/09 A301 RMK A01 T01090087  RH  086%=      5-min Rain = 0
KAHS 100434Z 23004KT 11/09 A301 RMK A01 T01080087  RH  087%=      5-min Rain = 0
KAHS 100435Z 23004KT 11/09 A301 RMK A01 T01080087  RH  087%=      5-min Rain = 0
KAHS 100436Z 23004KT 11/09 A301 RMK A01 T01080088  RH  087%=      5-min Rain = 0
KAHS 100437Z 23004KT 11/09 A301 RMK A01 T01090089  RH  088%=      5-min Rain = 0
KAHS 100438Z 23004KT 11/09 A301 RMK A01 T01100090  RH  088%=      5-min Rain = 0
KAHS 100439Z 23004KT 11/09 A301 RMK A01 T01110090  RH  087%=      5-min Rain = 0
KAHS 100440Z 23004KT 11/09 A301 RMK A01 T01110090  RH  087%=      5-min Rain = 0
KAHS 100441Z 23004KT 11/09 A301 RMK A01 T01110089  RH  087%=      5-min Rain = 0
KAHS 100442Z 24004KT 11/09 A301 RMK A01 T01110089  RH  087%=      5-min Rain = 0
KAHS 100443Z 25004KT 11/09 A301 RMK A01 T01110089  RH  087%=      5-min Rain = 0
KAHS 100444Z 25004KT 11/09 A301 RMK A01 T01110089  RH  087%=      5-min Rain = 0
KAHS 100445Z 25005KT 11/09 A301 RMK A01 T01110090  RH  087%=      5-min Rain = 0
KAHS 100446Z 25005KT 11/09 A301 RMK A01 T01100089  RH  087%=      5-min Rain = 0
KAHS 100447Z 25005KT 11/09 A301 RMK A01 T01100089  RH  087%=      5-min Rain = 0
KAHS 100448Z 25005KT 11/09 A301 RMK A01 T01100089  RH  087%=      5-min Rain = 0
KAHS 100449Z 25005KT 11/09 A301 RMK A01 T01090089  RH  087%=      5-min Rain = 0
KAHS 100450Z 25005KT 11/09 A301 RMK A01 T01090088  RH  087%=      5-min Rain = 0
KAHS 100451Z 25005KT 11/09 A301 RMK A01 T01090088  RH  087%=      5-min Rain = 0
KAHS 100452Z 26004KT 11/09 A301 RMK A01 T01080088  RH  087%=      5-min Rain = 0
KAHS 100453Z 26005KT 11/09 A301 RMK A01 T01080088  RH  087%=      5-min Rain = 0
KAHS 100454Z 26004KT 11/09 A301 RMK A01 T01080088  RH  088%=      5-min Rain = 0
KAHS 100455Z 26004KT 11/09 A301 RMK A01 T01070088  RH  088%=      5-min Rain = 0
KAHS 100456Z 26004KT 11/09 A301 RMK A01 T01070088  RH  088%=      5-min Rain = 0
KAHS 100457Z 26004KT 11/09 A301 RMK A01 T01070088  RH  088%=      5-min Rain = 0
KAHS 100458Z 26004KT 11/09 A301 RMK A01 T01070088  RH  088%=      5-min Rain = 0
KAHS 100459Z 26004KT 11/09 A301 RMK A01 T01070087  RH  088%=      5-min Rain = 0
KAHS 100500Z 26004KT 11/09 A301 RMK A01 T01070087  RH  088%=      5-min Rain = 0
KAHS 100501Z 26004KT 11/09 A301 RMK A01 T01060087  RH  088%=      5-min Rain = 0
KAHS 100502Z 26004KT 11/09 A301 RMK A01 T01060087  RH  088%=      5-min Rain = 0
KAHS 100503Z 26004KT 11/09 A301 RMK A01 T01060087  RH  088%=      5-min Rain = 0
KAHS 100504Z 27005KT 11/09 A301 RMK A01 T01070088  RH  088%=      5-min Rain = 0
KAHS 100505Z 27004KT 11/09 A301 RMK A01 T01070088  RH  088%=      5-min Rain = 0
KAHS 100506Z 27005KT 11/09 A301 RMK A01 T01070089  RH  089%=      5-min Rain = 0
KAHS 100507Z 27005KT 11/09 A301 RMK A01 T01070089  RH  089%=      5-min Rain = 0
KAHS 100508Z 27005KT 11/09 A301 RMK A01 T01080090  RH  089%=      5-min Rain = 0
KAHS 100509Z 27005KT 11/09 A301 RMK A01 T01080090  RH  089%=      5-min Rain = 0
KAHS 100510Z 27006KT 11/09 A301 RMK A01 T01080089  RH  088%=      5-min Rain = 0
KAHS 100511Z 27006KT 11/09 A301 RMK A01 T01080089  RH  088%=      5-min Rain = 0
KAHS 100512Z 27005KT 11/09 A301 RMK A01 T01080089  RH  088%=      5-min Rain = 0
KAHS 100513Z 27005KT 11/09 A301 RMK A01 T01070088  RH  088%=      5-min Rain = 0
KAHS 100514Z 27005KT 11/09 A301 RMK A01 T01070088  RH  088%=      5-min Rain = 0
KAHS 100515Z 27006KT 11/09 A301 RMK A01 T01070088  RH  088%=      5-min Rain = 0
KAHS 100516Z 27006KT 11/09 A301 RMK A01 T01060087  RH  088%=      5-min Rain = 0
KAHS 100517Z 27006KT 11/09 A301 RMK A01 T01060087  RH  088%=      5-min Rain = 0
KAHS 100518Z 27006KT 11/09 A301 RMK A01 T01060087  RH  088%=      5-min Rain = 0
KAHS 100519Z 27006KT 11/09 A301 RMK A01 T01060088  RH  089%=      5-min Rain = 0
KAHS 100520Z 27006KT 11/09 A301 RMK A01 T01060088  RH  089%=      5-min Rain = 0
KAHS 100521Z 27006KT 11/09 A3009 RMK A01 T01070089  RH  089%=      5-min Rain = 0
KAHS 100522Z 27007KT 11/09 A3009 RMK A01 T01060088  RH  088%=      5-min Rain = 0
KAHS 100523Z 27007KT 11/09 A3009 RMK A01 T01060088  RH  088%=      5-min Rain = 0
KAHS 100524Z 28007KT 11/09 A3009 RMK A01 T01060088  RH  089%=      5-min Rain = 0
KAHS 100525Z 27007KT 11/09 A3009 RMK A01 T01060088  RH  089%=      5-min Rain = 0
KAHS 100526Z 27007KT 11/09 A3009 RMK A01 T01060089  RH  089%=      5-min Rain = 0
KAHS 100527Z 28007KT 11/09 A3009 RMK A01 T01060089  RH  089%=      5-min Rain = 0
KAHS 100528Z 28006KT 11/09 A3009 RMK A01 T01070090  RH  089%=      5-min Rain = 0
KAHS 100529Z 28006KT 11/09 A3009 RMK A01 T01080091  RH  089%=      5-min Rain = 0
KAHS 100530Z 28006KT 11/09 A3009 RMK A01 T01090091  RH  089%=      5-min Rain = 0
KAHS 100531Z 28006KT 11/09 A3009 RMK A01 T01090092  RH  089%=      5-min Rain = 0
KAHS 100532Z 28006KT 11/09 A3009 RMK A01 T01090092  RH  089%=      5-min Rain = 0
KAHS 100533Z 28006KT 11/09 A3009 RMK A01 T01100092  RH  089%=      5-min Rain = 0
KAHS 100534Z 28006KT 11/09 A3009 RMK A01 T01100092  RH  089%=      5-min Rain = 0
KAHS 100535Z 28006KT 11/09 A3009 RMK A01 T01100092  RH  089%=      5-min Rain = 0
KAHS 100536Z 28006KT 11/09 A3009 RMK A01 T01100092  RH  089%=      5-min Rain = 0
KAHS 100537Z 28007KT 11/09 A3009 RMK A01 T01100092  RH  089%=      5-min Rain = 0
KAHS 100538Z 28006KT 11/09 A3009 RMK A01 T01110093  RH  089%=      5-min Rain = 0
KAHS 100539Z 28006KT 11/09 A3009 RMK A01 T01110093  RH  089%=      5-min Rain = 0
KAHS 100540Z 28006KT 11/09 A3009 RMK A01 T01110093  RH  089%=      5-min Rain = 0
KAHS 100541Z 28006KT 11/09 A3009 RMK A01 T01110093  RH  088%=      5-min Rain = 0
KAHS 100542Z 28006KT 11/09 A3009 RMK A01 T01110092  RH  088%=      5-min Rain = 0
KAHS 100543Z 28005KT 11/09 A3009 RMK A01 T01110092  RH  088%=      5-min Rain = 0
KAHS 100544Z 28005KT 11/09 A3009 RMK A01 T01110092  RH  088%=      5-min Rain = 0
KAHS 100545Z 28005KT 11/09 A3009 RMK A01 T01110092  RH  088%=      5-min Rain = 0
KAHS 100546Z 28005KT 11/09 A3009 RMK A01 T01110092  RH  088%=      5-min Rain = 0
KAHS 100547Z 28005KT 11/09 A3009 RMK A01 T01110092  RH  088%=      5-min Rain = 0
KAHS 100548Z 28004KT 11/09 A3009 RMK A01 T01110092  RH  088%=      5-min Rain = 0
KAHS 100549Z 28004KT 11/09 A3009 RMK A01 T01100091  RH  088%=      5-min Rain = 0
KAHS 100550Z 28004KT 11/09 A3009 RMK A01 T01100091  RH  088%=      5-min Rain = 0
KAHS 100551Z 28004KT 11/09 A3009 RMK A01 T01090091  RH  088%=      5-min Rain = 0
KAHS 100552Z 28004KT 11/09 A3009 RMK A01 T01090091  RH  088%=      5-min Rain = 0
KAHS 100553Z 28004KT 11/09 A3009 RMK A01 T01090090  RH  088%=      5-min Rain = 0
KAHS 100554Z 28003KT 11/09 A3009 RMK A01 T01090091  RH  089%=      5-min Rain = 0
KAHS 100555Z 28003KT 11/09 A3009 RMK A01 T01080091  RH  089%=      5-min Rain = 0
KAHS 100556Z 27003KT 11/09 A3009 RMK A01 T01080090  RH  089%=      5-min Rain = 0
KAHS 100557Z 27003KT 11/09 A3009 RMK A01 T01080090  RH  089%=      5-min Rain = 0
KAHS 100558Z 26003KT 11/09 A3009 RMK A01 T01070089  RH  089%=      5-min Rain = 0
KAHS 100559Z 25003KT 11/09 A3009 RMK A01 T01060088  RH  089%=      5-min Rain = 0

Page generated in 0.0922 seconds.